Time,TemperatureF,DewpointF,PressureIn,WindDirection,WindDirectionDegrees,WindSpeedMPH,WindSpeedGustMPH,Humidity,HourlyPrecipIn,Conditions,Clouds,dailyrainin,SoftwareType,DateUTC
2013-06-15 00:00:00,61.0,53.4,29.50,NE,45,0.0,0.9,76,0.00,,---,0.00,VWS V14.01,2013-06-15 04:00:00,
2013-06-15 00:01:00,61.0,53.4,29.50,NE,45,1.1,1.1,76,0.00,,---,0.00,VWS V14.01,2013-06-15 04:01:00,
2013-06-15 00:02:00,61.0,53.4,29.50,North,0,0.0,1.6,76,0.00,,---,0.00,VWS V14.01,2013-06-15 04:02:00,
2013-06-15 00:03:00,61.0,53.0,29.50,SE,135,1.1,1.1,75,0.00,,---,0.00,VWS V14.01,2013-06-15 04:03:00,
2013-06-15 00:04:00,60.8,52.8,29.50,SE,135,0.0,1.1,75,0.00,,---,0.00,VWS V14.01,2013-06-15 04:04:00,
2013-06-15 00:05:00,60.8,52.8,29.50,East,90,0.9,0.9,75,0.00,,---,0.00,VWS V14.01,2013-06-15 04:05:00,
2013-06-15 00:06:00,60.8,52.8,29.50,East,90,1.3,1.3,75,0.00,,---,0.00,VWS V14.01,2013-06-15 04:06:00,
2013-06-15 00:07:00,60.8,53.2,29.50,ESE,112,0.0,2.0,76,0.00,,---,0.00,VWS V14.01,2013-06-15 04:07:00,
2013-06-15 00:08:00,60.8,53.2,29.50,East,90,2.2,2.2,76,0.00,,---,0.00,VWS V14.01,2013-06-15 04:08:00,
2013-06-15 00:09:00,60.8,53.2,29.50,East,90,0.0,2.2,76,0.00,,---,0.00,VWS V14.01,2013-06-15 04:09:00,
2013-06-15 00:10:00,61.0,53.0,29.50,NW,315,1.3,2.0,75,0.00,,---,0.00,VWS V14.01,2013-06-15 04:10:00,
2013-06-15 00:11:00,61.0,53.0,29.50,NE,45,0.0,1.3,75,0.00,,---,0.00,VWS V14.01,2013-06-15 04:11:00,
2013-06-15 00:12:00,60.8,52.8,29.50,East,90,1.6,1.6,75,0.00,,---,0.00,VWS V14.01,2013-06-15 04:12:00,
2013-06-15 00:13:00,61.0,53.0,29.50,East,90,2.7,2.7,75,0.00,,---,0.00,VWS V14.01,2013-06-15 04:13:00,
2013-06-15 00:14:00,61.0,53.4,29.50,East,90,0.0,2.7,76,0.00,,---,0.00,VWS V14.01,2013-06-15 04:14:00,
2013-06-15 00:15:00,61.0,53.0,29.50,ESE,112,0.0,1.1,75,0.00,,---,0.00,VWS V14.01,2013-06-15 04:15:00,
2013-06-15 00:16:00,61.0,53.0,29.50,ESE,112,0.9,0.9,75,0.00,,---,0.00,VWS V14.01,2013-06-15 04:16:00,
2013-06-15 00:17:00,60.8,52.8,29.50,NE,45,0.0,1.1,75,0.00,,---,0.00,VWS V14.01,2013-06-15 04:17:00,
2013-06-15 00:18:00,60.8,52.8,29.50,NE,45,0.0,1.6,75,0.00,,---,0.00,VWS V14.01,2013-06-15 04:18:00,
2013-06-15 00:19:00,60.8,52.8,29.50,NE,45,0.9,1.3,75,0.00,,---,0.00,VWS V14.01,2013-06-15 04:19:00,
2013-06-15 00:20:00,60.8,53.2,29.50,West,270,1.1,1.1,76,0.00,,---,0.00,VWS V14.01,2013-06-15 04:20:00,
2013-06-15 00:21:00,60.8,52.8,29.50,East,90,2.5,2.5,75,0.00,,---,0.00,VWS V14.01,2013-06-15 04:21:00,
2013-06-15 00:22:00,61.0,53.0,29.47,NE,45,0.0,1.3,75,0.00,,---,0.00,VWS V14.01,2013-06-15 04:22:00,
2013-06-15 00:23:00,61.0,53.0,29.47,East,90,3.1,3.6,75,0.00,,---,0.00,VWS V14.01,2013-06-15 04:23:00,
2013-06-15 00:24:00,61.0,53.0,29.47,NW,315,0.0,3.1,75,0.00,,---,0.00,VWS V14.01,2013-06-15 04:24:00,
2013-06-15 00:25:00,61.0,53.4,29.47,East,90,1.1,2.5,76,0.00,,---,0.00,VWS V14.01,2013-06-15 04:25:00,
2013-06-15 00:26:00,61.0,53.4,29.47,East,90,0.9,1.1,76,0.00,,---,0.00,VWS V14.01,2013-06-15 04:26:00,
2013-06-15 00:27:00,61.0,53.4,29.47,West,270,1.3,2.7,76,0.00,,---,0.00,VWS V14.01,2013-06-15 04:27:00,
2013-06-15 00:28:00,61.0,53.4,29.47,West,270,0.0,1.3,76,0.00,,---,0.00,VWS V14.01,2013-06-15 04:28:00,
2013-06-15 00:29:00,61.0,53.4,29.47,ENE,68,1.1,1.1,76,0.00,,---,0.00,VWS V14.01,2013-06-15 04:29:00,
2013-06-15 00:30:00,61.0,53.4,29.47,ESE,112,1.1,2.0,76,0.00,,---,0.00,VWS V14.01,2013-06-15 04:30:00,
2013-06-15 00:31:00,61.0,53.4,29.47,East,90,2.5,2.5,76,0.00,,---,0.00,VWS V14.01,2013-06-15 04:31:00,
2013-06-15 00:32:00,61.0,53.4,29.47,WNW,292,0.0,2.0,76,0.00,,---,0.00,VWS V14.01,2013-06-15 04:32:00,
2013-06-15 00:33:00,61.0,53.0,29.47,ENE,68,0.0,0.0,75,0.00,,---,0.00,VWS V14.01,2013-06-15 04:33:00,
2013-06-15 00:34:00,61.0,53.4,29.47,East,90,1.3,1.6,76,0.00,,---,0.00,VWS V14.01,2013-06-15 04:34:00,
2013-06-15 00:35:00,61.0,53.4,29.47,SE,135,0.0,1.3,76,0.00,,---,0.00,VWS V14.01,2013-06-15 04:35:00,
2013-06-15 00:36:00,61.0,53.4,29.47,East,90,1.3,1.3,76,0.00,,---,0.00,VWS V14.01,2013-06-15 04:36:00,
2013-06-15 00:37:00,61.0,53.0,29.47,North,0,0.9,3.4,75,0.00,,---,0.00,VWS V14.01,2013-06-15 04:37:00,
2013-06-15 00:38:00,61.0,53.0,29.47,NE,45,0.9,1.3,75,0.00,,---,0.00,VWS V14.01,2013-06-15 04:38:00,
2013-06-15 00:39:00,61.0,53.4,29.47,East,90,2.0,2.0,76,0.00,,---,0.00,VWS V14.01,2013-06-15 04:39:00,
2013-06-15 00:40:00,61.0,53.4,29.47,East,90,2.2,2.5,76,0.00,,---,0.00,VWS V14.01,2013-06-15 04:40:00,
2013-06-15 00:41:00,61.0,53.4,29.47,East,90,2.0,2.2,76,0.00,,---,0.00,VWS V14.01,2013-06-15 04:41:00,
2013-06-15 00:42:00,60.8,53.2,29.47,East,90,0.0,1.6,76,0.00,,---,0.00,VWS V14.01,2013-06-15 04:42:00,
2013-06-15 00:43:00,60.8,53.2,29.47,West,270,1.6,2.2,76,0.00,,---,0.00,VWS V14.01,2013-06-15 04:43:00,
2013-06-15 00:44:00,61.0,53.0,29.47,West,270,1.3,2.7,75,0.00,,---,0.00,VWS V14.01,2013-06-15 04:44:00,
2013-06-15 00:45:00,61.0,53.0,29.47,East,90,1.3,1.3,75,0.00,,---,0.00,VWS V14.01,2013-06-15 04:45:00,
2013-06-15 00:46:00,61.0,53.4,29.47,East,90,2.2,2.2,76,0.00,,---,0.00,VWS V14.01,2013-06-15 04:46:00,
2013-06-15 00:47:00,61.0,53.0,29.47,NW,315,0.0,2.0,75,0.00,,---,0.00,VWS V14.01,2013-06-15 04:47:00,
2013-06-15 00:48:00,61.0,53.4,29.47,NNW,338,0.0,0.0,76,0.00,,---,0.00,VWS V14.01,2013-06-15 04:48:00,
2013-06-15 00:49:00,61.0,53.0,29.47,SE,135,0.0,1.6,75,0.00,,---,0.00,VWS V14.01,2013-06-15 04:49:00,
2013-06-15 00:50:00,60.8,53.2,29.47,SE,135,0.0,0.0,76,0.00,,---,0.00,VWS V14.01,2013-06-15 04:50:00,
2013-06-15 00:51:00,60.8,53.2,29.47,SE,135,0.0,0.0,76,0.00,,---,0.00,VWS V14.01,2013-06-15 04:51:00,
2013-06-15 00:52:00,60.6,53.0,29.47,NW,315,0.9,1.6,76,0.00,,---,0.00,VWS V14.01,2013-06-15 04:52:00,
2013-06-15 00:53:00,60.6,53.0,29.47,East,90,1.3,1.6,76,0.00,,---,0.00,VWS V14.01,2013-06-15 04:53:00,
2013-06-15 00:54:00,60.6,53.0,29.47,East,90,0.0,1.3,76,0.00,,---,0.00,VWS V14.01,2013-06-15 04:54:00,
2013-06-15 00:55:00,60.6,53.0,29.47,East,90,1.3,1.3,76,0.00,,---,0.00,VWS V14.01,2013-06-15 04:55:00,
2013-06-15 00:56:00,60.6,53.0,29.47,East,90,1.3,1.3,76,0.00,,---,0.00,VWS V14.01,2013-06-15 04:56:00,
2013-06-15 00:57:00,60.4,53.2,29.47,SE,135,0.0,0.0,77,0.00,,---,0.00,VWS V14.01,2013-06-15 04:57:00,
2013-06-15 00:58:00,60.4,53.2,29.47,East,90,1.1,1.1,77,0.00,,---,0.00,VWS V14.01,2013-06-15 04:58:00,
2013-06-15 00:59:00,60.6,53.4,29.47,NE,45,2.0,2.0,77,0.00,,---,0.00,VWS V14.01,2013-06-15 04:59:00,
2013-06-15 01:00:00,60.6,53.0,29.47,East,90,1.6,2.0,76,0.00,,---,0.00,VWS V14.01,2013-06-15 05:00:00,
2013-06-15 01:01:00,60.6,53.0,29.47,East,90,1.1,1.6,76,0.00,,---,0.00,VWS V14.01,2013-06-15 05:01:00,
2013-06-15 01:02:00,60.8,53.2,29.47,NNE,22,2.2,4.7,76,0.00,,---,0.00,VWS V14.01,2013-06-15 05:02:00,
2013-06-15 01:03:00,60.8,53.2,29.47,ESE,112,0.0,2.2,76,0.00,,---,0.00,VWS V14.01,2013-06-15 05:03:00,
2013-06-15 01:04:00,60.8,53.2,29.47,ESE,112,0.0,0.9,76,0.00,,---,0.00,VWS V14.01,2013-06-15 05:04:00,
2013-06-15 01:05:00,60.6,53.0,29.47,ESE,112,0.0,0.0,76,0.00,,---,0.00,VWS V14.01,2013-06-15 05:05:00,
2013-06-15 01:06:00,60.6,53.0,29.47,East,90,2.2,2.2,76,0.00,,---,0.00,VWS V14.01,2013-06-15 05:06:00,
2013-06-15 01:07:00,60.6,53.0,29.50,East,90,1.3,1.3,76,0.00,,---,0.00,VWS V14.01,2013-06-15 05:07:00,
2013-06-15 01:08:00,60.6,53.0,29.50,SE,135,0.9,2.0,76,0.00,,---,0.00,VWS V14.01,2013-06-15 05:08:00,
2013-06-15 01:09:00,60.6,53.0,29.50,East,90,1.6,1.6,76,0.00,,---,0.00,VWS V14.01,2013-06-15 05:09:00,
2013-06-15 01:10:00,60.4,53.2,29.50,East,90,0.0,2.5,77,0.00,,---,0.00,VWS V14.01,2013-06-15 05:10:00,
2013-06-15 01:11:00,60.4,53.2,29.50,East,90,0.0,0.0,77,0.00,,---,0.00,VWS V14.01,2013-06-15 05:11:00,
2013-06-15 01:12:00,60.4,53.2,29.50,East,90,2.0,2.0,77,0.00,,---,0.00,VWS V14.01,2013-06-15 05:12:00,
2013-06-15 01:13:00,60.4,53.2,29.50,NW,315,0.0,2.0,77,0.00,,---,0.00,VWS V14.01,2013-06-15 05:13:00,
2013-06-15 01:14:00,60.4,53.2,29.50,East,90,1.1,1.1,77,0.00,,---,0.00,VWS V14.01,2013-06-15 05:14:00,
2013-06-15 01:15:00,60.4,53.2,29.50,South,180,0.0,2.2,77,0.00,,---,0.00,VWS V14.01,2013-06-15 05:15:00,
2013-06-15 01:16:00,60.4,53.2,29.50,East,90,0.9,0.9,77,0.00,,---,0.00,VWS V14.01,2013-06-15 05:16:00,
2013-06-15 01:17:00,60.4,53.2,29.50,East,90,0.0,1.1,77,0.00,,---,0.00,VWS V14.01,2013-06-15 05:17:00,
2013-06-15 01:18:00,60.4,53.2,29.50,East,90,0.0,1.1,77,0.00,,---,0.00,VWS V14.01,2013-06-15 05:18:00,
2013-06-15 01:19:00,60.4,53.2,29.50,SE,135,0.0,0.0,77,0.00,,---,0.00,VWS V14.01,2013-06-15 05:19:00,
2013-06-15 01:20:00,60.3,53.0,29.50,SE,135,0.0,0.0,77,0.00,,---,0.00,VWS V14.01,2013-06-15 05:20:00,
2013-06-15 01:21:00,60.3,53.0,29.50,SE,135,0.0,0.0,77,0.00,,---,0.00,VWS V14.01,2013-06-15 05:21:00,
2013-06-15 01:22:00,60.3,53.0,29.50,SE,135,0.0,0.0,77,0.00,,---,0.00,VWS V14.01,2013-06-15 05:22:00,
2013-06-15 01:23:00,60.3,53.0,29.50,SE,135,0.0,0.0,77,0.00,,---,0.00,VWS V14.01,2013-06-15 05:23:00,
2013-06-15 01:24:00,60.1,52.9,29.50,SE,135,0.0,0.0,77,0.00,,---,0.00,VWS V14.01,2013-06-15 05:24:00,
2013-06-15 01:25:00,59.9,53.0,29.50,SE,135,0.0,0.0,78,0.00,,---,0.00,VWS V14.01,2013-06-15 05:25:00,
2013-06-15 01:26:00,59.9,53.0,29.50,SE,135,0.0,0.0,78,0.00,,---,0.00,VWS V14.01,2013-06-15 05:26:00,
2013-06-15 01:27:00,59.9,53.0,29.50,East,90,1.6,1.6,78,0.00,,---,0.00,VWS V14.01,2013-06-15 05:27:00,
2013-06-15 01:28:00,59.9,53.0,29.50,East,90,0.0,1.6,78,0.00,,---,0.00,VWS V14.01,2013-06-15 05:28:00,
2013-06-15 01:29:00,59.7,52.9,29.50,East,90,1.3,1.3,78,0.00,,---,0.00,VWS V14.01,2013-06-15 05:29:00,
2013-06-15 01:30:00,59.7,52.9,29.50,ENE,68,0.0,1.6,78,0.00,,---,0.00,VWS V14.01,2013-06-15 05:30:00,
2013-06-15 01:31:00,59.7,53.2,29.50,ENE,68,0.0,0.0,79,0.00,,---,0.00,VWS V14.01,2013-06-15 05:31:00,
2013-06-15 01:32:00,59.7,52.9,29.50,ENE,68,0.0,0.0,78,0.00,,---,0.00,VWS V14.01,2013-06-15 05:32:00,
2013-06-15 01:33:00,59.7,52.9,29.50,ESE,112,1.3,1.3,78,0.00,,---,0.00,VWS V14.01,2013-06-15 05:33:00,
2013-06-15 01:34:00,59.7,52.9,29.50,ESE,112,0.0,1.3,78,0.00,,---,0.00,VWS V14.01,2013-06-15 05:34:00,
2013-06-15 01:35:00,59.7,52.9,29.50,ESE,112,0.0,0.0,78,0.00,,---,0.00,VWS V14.01,2013-06-15 05:35:00,
2013-06-15 01:36:00,59.7,52.9,29.50,ESE,112,0.0,0.0,78,0.00,,---,0.00,VWS V14.01,2013-06-15 05:36:00,
2013-06-15 01:37:00,59.7,52.9,29.50,ESE,112,0.0,0.0,78,0.00,,---,0.00,VWS V14.01,2013-06-15 05:37:00,
2013-06-15 01:38:00,59.5,52.7,29.50,ESE,112,0.0,0.0,78,0.00,,---,0.00,VWS V14.01,2013-06-15 05:38:00,
2013-06-15 01:39:00,59.5,52.7,29.50,ESE,112,0.0,0.0,78,0.00,,---,0.00,VWS V14.01,2013-06-15 05:39:00,
2013-06-15 01:40:00,59.4,52.5,29.50,ESE,112,0.0,0.0,78,0.00,,---,0.00,VWS V14.01,2013-06-15 05:40:00,
2013-06-15 01:41:00,59.4,52.5,29.50,ESE,112,0.0,0.0,78,0.00,,---,0.00,VWS V14.01,2013-06-15 05:41:00,
2013-06-15 01:42:00,59.4,52.8,29.50,East,90,0.0,1.1,79,0.00,,---,0.00,VWS V14.01,2013-06-15 05:42:00,
2013-06-15 01:43:00,59.4,52.8,29.50,East,90,1.1,1.1,79,0.00,,---,0.00,VWS V14.01,2013-06-15 05:43:00,
2013-06-15 01:44:00,59.2,52.7,29.50,East,90,0.0,1.1,79,0.00,,---,0.00,VWS V14.01,2013-06-15 05:44:00,
2013-06-15 01:45:00,59.2,52.7,29.50,East,90,0.0,0.0,79,0.00,,---,0.00,VWS V14.01,2013-06-15 05:45:00,
2013-06-15 01:46:00,59.2,52.7,29.50,East,90,0.0,0.0,79,0.00,,---,0.00,VWS V14.01,2013-06-15 05:46:00,
2013-06-15 01:47:00,59.0,52.8,29.50,East,90,0.0,0.0,80,0.00,,---,0.00,VWS V14.01,2013-06-15 05:47:00,
2013-06-15 01:48:00,58.8,52.7,29.50,East,90,0.0,0.0,80,0.00,,---,0.00,VWS V14.01,2013-06-15 05:48:00,
2013-06-15 01:49:00,58.8,52.7,29.50,East,90,0.0,0.0,80,0.00,,---,0.00,VWS V14.01,2013-06-15 05:49:00,
2013-06-15 01:50:00,58.8,52.7,29.50,East,90,0.0,0.0,80,0.00,,---,0.00,VWS V14.01,2013-06-15 05:50:00,
2013-06-15 01:51:00,58.8,52.7,29.50,East,90,0.0,0.0,80,0.00,,---,0.00,VWS V14.01,2013-06-15 05:51:00,
2013-06-15 01:52:00,58.6,52.5,29.50,East,90,0.0,0.0,80,0.00,,---,0.00,VWS V14.01,2013-06-15 05:52:00,
2013-06-15 01:53:00,58.5,52.3,29.50,East,90,0.0,0.0,80,0.00,,---,0.00,VWS V14.01,2013-06-15 05:53:00,
2013-06-15 01:54:00,58.5,52.3,29.50,NW,315,0.0,1.1,80,0.00,,---,0.00,VWS V14.01,2013-06-15 05:54:00,
2013-06-15 01:55:00,58.5,52.7,29.50,North,0,0.9,0.9,81,0.00,,---,0.00,VWS V14.01,2013-06-15 05:55:00,
2013-06-15 01:56:00,58.5,52.7,29.50,NE,45,0.0,1.1,81,0.00,,---,0.00,VWS V14.01,2013-06-15 05:56:00,
2013-06-15 01:57:00,58.5,52.7,29.50,NE,45,0.0,0.0,81,0.00,,---,0.00,VWS V14.01,2013-06-15 05:57:00,
2013-06-15 01:58:00,58.5,52.7,29.50,NE,45,0.0,0.0,81,0.00,,---,0.00,VWS V14.01,2013-06-15 05:58:00,
2013-06-15 01:59:00,58.5,52.7,29.50,NE,45,0.0,0.9,81,0.00,,---,0.00,VWS V14.01,2013-06-15 05:59:00,
2013-06-15 02:00:00,58.5,52.7,29.50,NE,45,0.0,0.0,81,0.00,,---,0.00,VWS V14.01,2013-06-15 06:00:00,
2013-06-15 02:01:00,58.5,52.7,29.50,NE,45,1.3,1.3,81,0.00,,---,0.00,VWS V14.01,2013-06-15 06:01:00,
2013-06-15 02:02:00,58.3,52.5,29.50,NE,45,0.9,1.3,81,0.00,,---,0.00,VWS V14.01,2013-06-15 06:02:00,
2013-06-15 02:03:00,58.3,52.5,29.50,NW,315,0.0,1.6,81,0.00,,---,0.00,VWS V14.01,2013-06-15 06:03:00,
2013-06-15 02:04:00,58.3,52.5,29.50,East,90,0.9,0.9,81,0.00,,---,0.00,VWS V14.01,2013-06-15 06:04:00,
2013-06-15 02:05:00,58.3,52.5,29.50,East,90,0.0,0.0,81,0.00,,---,0.00,VWS V14.01,2013-06-15 06:05:00,
2013-06-15 02:06:00,58.3,52.8,29.50,NE,45,1.1,1.1,82,0.00,,---,0.00,VWS V14.01,2013-06-15 06:06:00,
2013-06-15 02:07:00,58.3,52.8,29.50,NE,45,0.0,1.1,82,0.00,,---,0.00,VWS V14.01,2013-06-15 06:07:00,
2013-06-15 02:08:00,58.3,52.8,29.50,East,90,0.9,2.0,82,0.00,,---,0.00,VWS V14.01,2013-06-15 06:08:00,
2013-06-15 02:09:00,58.1,52.6,29.50,East,90,0.0,1.1,82,0.00,,---,0.00,VWS V14.01,2013-06-15 06:09:00,
2013-06-15 02:10:00,58.3,53.2,29.50,NW,315,2.0,2.0,83,0.00,,---,0.00,VWS V14.01,2013-06-15 06:10:00,
2013-06-15 02:11:00,58.1,53.0,29.50,NW,315,0.9,2.0,83,0.00,,---,0.00,VWS V14.01,2013-06-15 06:11:00,
2013-06-15 02:12:00,58.1,53.0,29.50,ENE,68,2.7,2.7,83,0.00,,---,0.00,VWS V14.01,2013-06-15 06:12:00,
2013-06-15 02:13:00,58.3,53.2,29.50,NE,45,0.0,2.7,83,0.00,,---,0.00,VWS V14.01,2013-06-15 06:13:00,
2013-06-15 02:14:00,58.3,53.2,29.50,East,90,0.0,0.0,83,0.00,,---,0.00,VWS V14.01,2013-06-15 06:14:00,
2013-06-15 02:15:00,58.1,53.0,29.50,East,90,1.3,1.3,83,0.00,,---,0.00,VWS V14.01,2013-06-15 06:15:00,
2013-06-15 02:16:00,58.1,53.0,29.50,East,90,0.0,1.3,83,0.00,,---,0.00,VWS V14.01,2013-06-15 06:16:00,
2013-06-15 02:17:00,58.1,53.0,29.50,East,90,0.0,0.0,83,0.00,,---,0.00,VWS V14.01,2013-06-15 06:17:00,
2013-06-15 02:18:00,58.1,53.0,29.50,East,90,0.0,1.3,83,0.00,,---,0.00,VWS V14.01,2013-06-15 06:18:00,
2013-06-15 02:19:00,58.1,53.0,29.50,East,90,0.0,1.3,83,0.00,,---,0.00,VWS V14.01,2013-06-15 06:19:00,
2013-06-15 02:20:00,58.1,53.0,29.50,East,90,0.0,0.0,83,0.00,,---,0.00,VWS V14.01,2013-06-15 06:20:00,
2013-06-15 02:21:00,57.9,52.8,29.50,East,90,0.0,0.0,83,0.00,,---,0.00,VWS V14.01,2013-06-15 06:21:00,
2013-06-15 02:22:00,57.9,52.8,29.53,East,90,1.3,1.3,83,0.00,,---,0.00,VWS V14.01,2013-06-15 06:22:00,
2013-06-15 02:23:00,57.9,52.8,29.53,East,90,0.0,1.3,83,0.00,,---,0.00,VWS V14.01,2013-06-15 06:23:00,
2013-06-15 02:24:00,57.9,52.8,29.53,NW,315,1.6,1.6,83,0.00,,---,0.00,VWS V14.01,2013-06-15 06:24:00,
2013-06-15 02:25:00,57.9,52.8,29.53,NW,315,2.2,2.2,83,0.00,,---,0.00,VWS V14.01,2013-06-15 06:25:00,
2013-06-15 02:26:00,58.1,53.0,29.53,NE,45,0.0,2.2,83,0.00,,---,0.00,VWS V14.01,2013-06-15 06:26:00,
2013-06-15 02:27:00,57.9,52.8,29.53,NW,315,1.1,1.1,83,0.00,,---,0.00,VWS V14.01,2013-06-15 06:27:00,
2013-06-15 02:28:00,57.9,52.8,29.53,NE,45,0.0,1.1,83,0.00,,---,0.00,VWS V14.01,2013-06-15 06:28:00,
2013-06-15 02:29:00,57.9,52.8,29.53,NE,45,0.0,0.0,83,0.00,,---,0.00,VWS V14.01,2013-06-15 06:29:00,
2013-06-15 02:30:00,57.9,52.8,29.53,NE,45,0.0,0.0,83,0.00,,---,0.00,VWS V14.01,2013-06-15 06:30:00,
2013-06-15 02:31:00,57.9,52.8,29.53,NE,45,0.0,0.0,83,0.00,,---,0.00,VWS V14.01,2013-06-15 06:31:00,
2013-06-15 02:32:00,57.9,52.8,29.53,NE,45,0.9,0.9,83,0.00,,---,0.00,VWS V14.01,2013-06-15 06:32:00,
2013-06-15 02:33:00,57.9,52.8,29.53,NW,315,1.3,2.2,83,0.00,,---,0.00,VWS V14.01,2013-06-15 06:33:00,
2013-06-15 02:34:00,57.9,52.8,29.53,East,90,0.0,2.0,83,0.00,,---,0.00,VWS V14.01,2013-06-15 06:34:00,
2013-06-15 02:35:00,57.9,52.8,29.53,East,90,0.0,1.3,83,0.00,,---,0.00,VWS V14.01,2013-06-15 06:35:00,
2013-06-15 02:36:00,57.9,52.8,29.53,NW,315,1.1,1.6,83,0.00,,---,0.00,VWS V14.01,2013-06-15 06:36:00,
2013-06-15 02:37:00,57.9,52.8,29.53,East,90,0.0,1.1,83,0.00,,---,0.00,VWS V14.01,2013-06-15 06:37:00,
2013-06-15 02:38:00,57.9,52.8,29.53,East,90,0.9,1.1,83,0.00,,---,0.00,VWS V14.01,2013-06-15 06:38:00,
2013-06-15 02:39:00,57.9,52.8,29.53,East,90,0.0,1.3,83,0.00,,---,0.00,VWS V14.01,2013-06-15 06:39:00,
2013-06-15 02:40:00,57.9,52.8,29.53,East,90,0.0,0.9,83,0.00,,---,0.00,VWS V14.01,2013-06-15 06:40:00,
2013-06-15 02:41:00,57.9,52.8,29.53,North,0,1.6,3.4,83,0.00,,---,0.00,VWS V14.01,2013-06-15 06:41:00,
2013-06-15 02:42:00,58.1,53.0,29.53,NNW,338,0.0,1.6,83,0.00,,---,0.00,VWS V14.01,2013-06-15 06:42:00,
2013-06-15 02:43:00,58.1,53.0,29.53,NNW,338,0.0,0.0,83,0.00,,---,0.00,VWS V14.01,2013-06-15 06:43:00,
2013-06-15 02:44:00,58.1,53.0,29.53,ENE,68,2.7,2.7,83,0.00,,---,0.00,VWS V14.01,2013-06-15 06:44:00,
2013-06-15 02:45:00,58.1,53.0,29.53,East,90,0.0,2.7,83,0.00,,---,0.00,VWS V14.01,2013-06-15 06:45:00,
2013-06-15 02:46:00,58.1,53.0,29.53,East,90,0.0,1.1,83,0.00,,---,0.00,VWS V14.01,2013-06-15 06:46:00,
2013-06-15 02:47:00,58.1,53.0,29.53,East,90,0.9,1.3,83,0.00,,---,0.00,VWS V14.01,2013-06-15 06:47:00,
2013-06-15 02:48:00,58.1,53.0,29.53,ENE,68,0.0,0.9,83,0.00,,---,0.00,VWS V14.01,2013-06-15 06:48:00,
2013-06-15 02:49:00,58.1,53.0,29.53,ENE,68,1.1,1.1,83,0.00,,---,0.00,VWS V14.01,2013-06-15 06:49:00,
2013-06-15 02:50:00,58.1,53.0,29.53,ENE,68,1.3,1.3,83,0.00,,---,0.00,VWS V14.01,2013-06-15 06:50:00,
2013-06-15 02:51:00,57.9,52.8,29.53,SW,225,0.0,1.3,83,0.00,,---,0.00,VWS V14.01,2013-06-15 06:51:00,
2013-06-15 02:52:00,57.9,52.8,29.53,East,90,0.0,1.1,83,0.00,,---,0.00,VWS V14.01,2013-06-15 06:52:00,
2013-06-15 02:53:00,57.9,52.8,29.53,NW,315,0.9,0.9,83,0.00,,---,0.00,VWS V14.01,2013-06-15 06:53:00,
2013-06-15 02:54:00,57.9,52.8,29.53,East,90,0.0,1.1,83,0.00,,---,0.00,VWS V14.01,2013-06-15 06:54:00,
2013-06-15 02:55:00,57.9,52.8,29.53,East,90,1.6,1.6,83,0.00,,---,0.00,VWS V14.01,2013-06-15 06:55:00,
2013-06-15 02:56:00,57.9,52.8,29.53,East,90,1.6,1.6,83,0.00,,---,0.00,VWS V14.01,2013-06-15 06:56:00,
2013-06-15 02:57:00,57.7,52.9,29.53,East,90,1.3,1.6,84,0.00,,---,0.00,VWS V14.01,2013-06-15 06:57:00,
2013-06-15 02:58:00,57.7,52.9,29.53,NE,45,0.9,2.5,84,0.00,,---,0.00,VWS V14.01,2013-06-15 06:58:00,
2013-06-15 02:59:00,57.9,52.8,29.53,NE,45,0.9,1.3,83,0.00,,---,0.00,VWS V14.01,2013-06-15 06:59:00,
2013-06-15 03:00:00,57.9,52.8,29.53,East,90,1.1,1.3,83,0.00,,---,0.00,VWS V14.01,2013-06-15 07:00:00,
2013-06-15 03:01:00,57.9,52.8,29.53,NW,315,0.0,1.1,83,0.00,,---,0.00,VWS V14.01,2013-06-15 07:01:00,
2013-06-15 03:02:00,57.9,52.8,29.53,East,90,1.6,2.5,83,0.00,,---,0.00,VWS V14.01,2013-06-15 07:02:00,
2013-06-15 03:03:00,57.9,52.8,29.53,East,90,1.3,1.6,83,0.00,,---,0.00,VWS V14.01,2013-06-15 07:03:00,
2013-06-15 03:04:00,57.9,52.8,29.53,ESE,112,0.0,1.3,83,0.00,,---,0.00,VWS V14.01,2013-06-15 07:04:00,
2013-06-15 03:05:00,57.9,52.8,29.53,East,90,1.6,2.0,83,0.00,,---,0.00,VWS V14.01,2013-06-15 07:05:00,
2013-06-15 03:06:00,57.9,52.5,29.53,East,90,0.0,1.6,82,0.00,,---,0.00,VWS V14.01,2013-06-15 07:06:00,
2013-06-15 03:07:00,57.7,52.3,29.53,SE,135,0.0,1.1,82,0.00,,---,0.00,VWS V14.01,2013-06-15 07:07:00,
2013-06-15 03:08:00,57.7,52.3,29.53,WNW,292,1.1,1.3,82,0.00,,---,0.00,VWS V14.01,2013-06-15 07:08:00,
2013-06-15 03:09:00,57.7,52.3,29.53,SE,135,2.7,2.7,82,0.00,,---,0.00,VWS V14.01,2013-06-15 07:09:00,
2013-06-15 03:10:00,57.7,52.3,29.53,NW,315,0.9,2.7,82,0.00,,---,0.00,VWS V14.01,2013-06-15 07:10:00,
2013-06-15 03:11:00,57.7,52.3,29.53,NW,315,0.0,0.9,82,0.00,,---,0.00,VWS V14.01,2013-06-15 07:11:00,
2013-06-15 03:12:00,57.7,52.3,29.53,East,90,0.0,1.1,82,0.00,,---,0.00,VWS V14.01,2013-06-15 07:12:00,
2013-06-15 03:13:00,57.7,52.3,29.53,East,90,0.0,0.0,82,0.00,,---,0.00,VWS V14.01,2013-06-15 07:13:00,
2013-06-15 03:14:00,57.6,52.1,29.53,East,90,0.0,0.0,82,0.00,,---,0.00,VWS V14.01,2013-06-15 07:14:00,
2013-06-15 03:15:00,57.6,52.1,29.53,East,90,0.9,1.1,82,0.00,,---,0.00,VWS V14.01,2013-06-15 07:15:00,
2013-06-15 03:17:00,57.6,52.4,29.47,East,90,1.3,1.3,83,0.00,,---,0.00,VWS V14.01,2013-06-15 07:17:00,
2013-06-15 03:18:00,57.4,52.3,29.53,East,90,0.0,1.3,83,0.00,,---,0.00,VWS V14.01,2013-06-15 07:18:00,
2013-06-15 03:19:00,57.4,51.9,29.53,East,90,0.0,0.0,82,0.00,,---,0.00,VWS V14.01,2013-06-15 07:19:00,
2013-06-15 03:20:00,57.4,51.9,29.53,East,90,1.6,1.6,82,0.00,,---,0.00,VWS V14.01,2013-06-15 07:20:00,
2013-06-15 03:21:00,57.4,52.3,29.53,NE,45,0.0,1.6,83,0.00,,---,0.00,VWS V14.01,2013-06-15 07:21:00,
2013-06-15 03:22:00,57.4,52.3,29.56,NE,45,0.0,0.0,83,0.00,,---,0.00,VWS V14.01,2013-06-15 07:22:00,
2013-06-15 03:23:00,57.2,52.1,29.56,NE,45,0.0,0.0,83,0.00,,---,0.00,VWS V14.01,2013-06-15 07:23:00,
2013-06-15 03:24:00,57.2,52.1,29.56,NE,45,0.0,0.0,83,0.00,,---,0.00,VWS V14.01,2013-06-15 07:24:00,
2013-06-15 03:25:00,57.2,52.1,29.56,ENE,68,1.3,1.3,83,0.00,,---,0.00,VWS V14.01,2013-06-15 07:25:00,
2013-06-15 03:26:00,57.2,52.1,29.56,ENE,68,0.0,1.3,83,0.00,,---,0.00,VWS V14.01,2013-06-15 07:26:00,
2013-06-15 03:27:00,57.0,51.9,29.56,East,90,0.9,0.9,83,0.00,,---,0.00,VWS V14.01,2013-06-15 07:27:00,
2013-06-15 03:28:00,57.0,51.9,29.56,East,90,0.0,0.9,83,0.00,,---,0.00,VWS V14.01,2013-06-15 07:28:00,
2013-06-15 03:29:00,57.0,51.9,29.56,East,90,0.0,0.0,83,0.00,,---,0.00,VWS V14.01,2013-06-15 07:29:00,
2013-06-15 03:30:00,57.0,51.9,29.56,East,90,0.0,0.0,83,0.00,,---,0.00,VWS V14.01,2013-06-15 07:30:00,
2013-06-15 03:31:00,57.0,51.9,29.56,East,90,0.0,0.0,83,0.00,,---,0.00,VWS V14.01,2013-06-15 07:31:00,
2013-06-15 03:32:00,57.0,51.9,29.56,South,180,0.0,0.0,83,0.00,,---,0.00,VWS V14.01,2013-06-15 07:32:00,
2013-06-15 03:33:00,57.0,51.9,29.56,SE,135,1.3,1.3,83,0.00,,---,0.00,VWS V14.01,2013-06-15 07:33:00,
2013-06-15 03:34:00,57.0,52.2,29.56,SE,135,0.0,1.3,84,0.00,,---,0.00,VWS V14.01,2013-06-15 07:34:00,
2013-06-15 03:35:00,57.0,51.9,29.56,SE,135,0.0,0.0,83,0.00,,---,0.00,VWS V14.01,2013-06-15 07:35:00,
2013-06-15 03:36:00,57.0,51.9,29.56,ESE,112,0.0,0.0,83,0.00,,---,0.00,VWS V14.01,2013-06-15 07:36:00,
2013-06-15 03:37:00,57.0,52.2,29.56,East,90,0.0,0.0,84,0.00,,---,0.00,VWS V14.01,2013-06-15 07:37:00,
2013-06-15 03:38:00,56.8,52.1,29.56,East,90,0.0,0.0,84,0.00,,---,0.00,VWS V14.01,2013-06-15 07:38:00,
2013-06-15 03:39:00,56.8,52.1,29.56,East,90,1.3,1.3,84,0.00,,---,0.00,VWS V14.01,2013-06-15 07:39:00,
2013-06-15 03:40:00,56.8,51.7,29.56,East,90,0.0,1.3,83,0.00,,---,0.00,VWS V14.01,2013-06-15 07:40:00,
2013-06-15 03:41:00,56.8,51.7,29.56,East,90,0.0,0.0,83,0.00,,---,0.00,VWS V14.01,2013-06-15 07:41:00,
2013-06-15 03:42:00,56.8,51.7,29.56,SE,135,1.1,1.1,83,0.00,,---,0.00,VWS V14.01,2013-06-15 07:42:00,
2013-06-15 03:43:00,56.8,51.7,29.56,NW,315,0.9,1.1,83,0.00,,---,0.00,VWS V14.01,2013-06-15 07:43:00,
2013-06-15 03:44:00,56.8,51.7,29.56,NW,315,1.1,1.1,83,0.00,,---,0.00,VWS V14.01,2013-06-15 07:44:00,
2013-06-15 03:45:00,56.8,51.7,29.56,SSW,202,0.0,1.1,83,0.00,,---,0.00,VWS V14.01,2013-06-15 07:45:00,
2013-06-15 03:46:00,56.8,51.7,29.56,East,90,0.0,0.0,83,0.00,,---,0.00,VWS V14.01,2013-06-15 07:46:00,
2013-06-15 03:47:00,56.8,51.7,29.56,East,90,0.0,0.0,83,0.00,,---,0.00,VWS V14.01,2013-06-15 07:47:00,
2013-06-15 03:48:00,56.8,52.1,29.56,East,90,1.6,1.6,84,0.00,,---,0.00,VWS V14.01,2013-06-15 07:48:00,
2013-06-15 03:49:00,56.8,51.7,29.56,East,90,0.9,1.6,83,0.00,,---,0.00,VWS V14.01,2013-06-15 07:49:00,
2013-06-15 03:50:00,56.8,52.1,29.56,East,90,0.0,0.9,84,0.00,,---,0.00,VWS V14.01,2013-06-15 07:50:00,
2013-06-15 03:51:00,56.7,51.9,29.56,SE,135,0.9,0.9,84,0.00,,---,0.00,VWS V14.01,2013-06-15 07:51:00,
2013-06-15 03:52:00,56.7,51.9,29.56,ESE,112,2.0,2.0,84,0.00,,---,0.00,VWS V14.01,2013-06-15 07:52:00,
2013-06-15 03:53:00,56.8,51.7,29.56,NW,315,0.0,2.0,83,0.00,,---,0.00,VWS V14.01,2013-06-15 07:53:00,
2013-06-15 03:54:00,56.8,51.7,29.56,NW,315,0.0,0.0,83,0.00,,---,0.00,VWS V14.01,2013-06-15 07:54:00,
2013-06-15 03:55:00,56.8,51.7,29.56,NNW,338,0.0,0.0,83,0.00,,---,0.00,VWS V14.01,2013-06-15 07:55:00,
2013-06-15 03:56:00,56.8,51.7,29.56,NE,45,0.0,0.0,83,0.00,,---,0.00,VWS V14.01,2013-06-15 07:56:00,
2013-06-15 03:57:00,56.8,51.7,29.56,NE,45,0.0,0.0,83,0.00,,---,0.00,VWS V14.01,2013-06-15 07:57:00,
2013-06-15 03:58:00,56.7,51.6,29.56,NE,45,0.0,0.0,83,0.00,,---,0.00,VWS V14.01,2013-06-15 07:58:00,
2013-06-15 04:00:00,56.7,51.6,29.56,West,270,2.0,2.0,83,0.00,,---,0.00,VWS V14.01,2013-06-15 08:00:00,
2013-06-15 04:01:00,56.7,51.6,29.56,West,270,0.0,2.0,83,0.00,,---,0.00,VWS V14.01,2013-06-15 08:01:00,
2013-06-15 04:02:00,56.7,51.6,29.56,East,90,2.2,2.2,83,0.00,,---,0.00,VWS V14.01,2013-06-15 08:02:00,
2013-06-15 04:03:00,56.8,51.7,29.56,NW,315,0.0,2.2,83,0.00,,---,0.00,VWS V14.01,2013-06-15 08:03:00,
2013-06-15 04:04:00,56.8,51.7,29.56,SE,135,2.5,2.5,83,0.00,,---,0.00,VWS V14.01,2013-06-15 08:04:00,
2013-06-15 04:05:00,56.8,51.7,29.56,West,270,1.6,2.5,83,0.00,,---,0.00,VWS V14.01,2013-06-15 08:05:00,
2013-06-15 04:06:00,57.0,51.6,29.56,NW,315,0.0,1.6,82,0.00,,---,0.00,VWS V14.01,2013-06-15 08:06:00,
2013-06-15 04:07:00,57.0,51.6,29.53,NW,315,0.0,0.0,82,0.00,,---,0.00,VWS V14.01,2013-06-15 08:07:00,
2013-06-15 04:08:00,57.0,51.6,29.53,West,270,1.1,1.1,82,0.00,,---,0.00,VWS V14.01,2013-06-15 08:08:00,
2013-06-15 04:09:00,57.0,51.6,29.53,West,270,0.0,1.1,82,0.00,,---,0.00,VWS V14.01,2013-06-15 08:09:00,
2013-06-15 04:10:00,57.0,51.6,29.53,NE,45,2.7,2.7,82,0.00,,---,0.00,VWS V14.01,2013-06-15 08:10:00,
2013-06-15 04:11:00,57.0,51.3,29.53,NW,315,0.0,2.7,81,0.00,,---,0.00,VWS V14.01,2013-06-15 08:11:00,
2013-06-15 04:12:00,57.0,51.3,29.53,East,90,1.6,1.6,81,0.00,,---,0.00,VWS V14.01,2013-06-15 08:12:00,
2013-06-15 04:13:00,56.8,51.4,29.53,NW,315,0.0,1.6,82,0.00,,---,0.00,VWS V14.01,2013-06-15 08:13:00,
2013-06-15 04:14:00,56.8,51.4,29.53,East,90,0.0,0.0,82,0.00,,---,0.00,VWS V14.01,2013-06-15 08:14:00,
2013-06-15 04:15:00,56.8,51.4,29.53,NW,315,1.3,1.3,82,0.00,,---,0.00,VWS V14.01,2013-06-15 08:15:00,
2013-06-15 04:16:00,56.8,51.4,29.53,NW,315,0.0,1.3,82,0.00,,---,0.00,VWS V14.01,2013-06-15 08:16:00,
2013-06-15 04:17:00,56.7,51.2,29.53,NW,315,0.0,0.0,82,0.00,,---,0.00,VWS V14.01,2013-06-15 08:17:00,
2013-06-15 04:18:00,56.7,51.2,29.53,NW,315,0.0,0.0,82,0.00,,---,0.00,VWS V14.01,2013-06-15 08:18:00,
2013-06-15 04:19:00,56.5,51.1,29.53,NW,315,0.0,0.0,82,0.00,,---,0.00,VWS V14.01,2013-06-15 08:19:00,
2013-06-15 04:20:00,56.5,51.4,29.53,NW,315,0.0,0.0,83,0.00,,---,0.00,VWS V14.01,2013-06-15 08:20:00,
2013-06-15 04:21:00,56.3,51.2,29.53,NW,315,0.0,0.0,83,0.00,,---,0.00,VWS V14.01,2013-06-15 08:21:00,
2013-06-15 04:22:00,56.3,51.2,29.56,NW,315,0.0,0.0,83,0.00,,---,0.00,VWS V14.01,2013-06-15 08:22:00,
2013-06-15 04:23:00,56.3,51.2,29.56,East,90,1.6,1.6,83,0.00,,---,0.00,VWS V14.01,2013-06-15 08:23:00,
2013-06-15 04:24:00,56.3,51.2,29.56,NE,45,1.1,1.6,83,0.00,,---,0.00,VWS V14.01,2013-06-15 08:24:00,
2013-06-15 04:25:00,56.3,50.9,29.56,NE,45,0.0,1.1,82,0.00,,---,0.00,VWS V14.01,2013-06-15 08:25:00,
2013-06-15 04:26:00,56.3,50.9,29.56,NE,45,0.0,0.0,82,0.00,,---,0.00,VWS V14.01,2013-06-15 08:26:00,
2013-06-15 04:27:00,56.3,51.2,29.56,East,90,1.3,1.3,83,0.00,,---,0.00,VWS V14.01,2013-06-15 08:27:00,
2013-06-15 04:28:00,56.3,51.2,29.56,East,90,0.0,1.3,83,0.00,,---,0.00,VWS V14.01,2013-06-15 08:28:00,
2013-06-15 04:29:00,56.3,51.2,29.56,East,90,0.0,0.0,83,0.00,,---,0.00,VWS V14.01,2013-06-15 08:29:00,
2013-06-15 04:30:00,56.1,51.0,29.56,East,90,0.0,0.0,83,0.00,,---,0.00,VWS V14.01,2013-06-15 08:30:00,
2013-06-15 04:31:00,56.1,51.4,29.56,SE,135,1.6,1.6,84,0.00,,---,0.00,VWS V14.01,2013-06-15 08:31:00,
2013-06-15 04:32:00,56.1,51.0,29.56,East,90,1.6,1.6,83,0.00,,---,0.00,VWS V14.01,2013-06-15 08:32:00,
2013-06-15 04:33:00,56.1,51.0,29.56,East,90,0.0,1.6,83,0.00,,---,0.00,VWS V14.01,2013-06-15 08:33:00,
2013-06-15 04:34:00,55.9,50.9,29.56,ENE,68,0.0,0.0,83,0.00,,---,0.00,VWS V14.01,2013-06-15 08:34:00,
2013-06-15 04:35:00,55.9,50.9,29.56,SE,135,1.3,1.3,83,0.00,,---,0.00,VWS V14.01,2013-06-15 08:35:00,
2013-06-15 04:36:00,55.9,50.9,29.56,SE,135,0.0,1.3,83,0.00,,---,0.00,VWS V14.01,2013-06-15 08:36:00,
2013-06-15 04:37:00,55.9,50.9,29.56,SE,135,0.0,0.0,83,0.00,,---,0.00,VWS V14.01,2013-06-15 08:37:00,
2013-06-15 04:38:00,55.9,50.9,29.56,East,90,0.9,0.9,83,0.00,,---,0.00,VWS V14.01,2013-06-15 08:38:00,
2013-06-15 04:39:00,55.8,50.7,29.56,SE,135,0.0,0.9,83,0.00,,---,0.00,VWS V14.01,2013-06-15 08:39:00,
2013-06-15 04:41:00,55.8,50.7,29.56,NE,45,0.9,0.9,83,0.00,,---,0.00,VWS V14.01,2013-06-15 08:41:00,
2013-06-15 04:42:00,55.8,50.7,29.56,NE,45,0.0,0.9,83,0.00,,---,0.00,VWS V14.01,2013-06-15 08:42:00,
2013-06-15 04:43:00,55.6,50.5,29.56,ENE,68,0.0,0.0,83,0.00,,---,0.00,VWS V14.01,2013-06-15 08:43:00,
2013-06-15 04:44:00,55.6,50.5,29.56,East,90,1.6,1.6,83,0.00,,---,0.00,VWS V14.01,2013-06-15 08:44:00,
2013-06-15 04:46:00,55.6,50.5,29.56,WNW,292,0.0,1.6,83,0.00,,---,0.00,VWS V14.01,2013-06-15 08:46:00,
2013-06-15 04:47:00,55.6,50.5,29.56,East,90,0.0,0.0,83,0.00,,---,0.00,VWS V14.01,2013-06-15 08:47:00,
2013-06-15 04:48:00,55.6,50.5,29.56,East,90,1.1,1.1,83,0.00,,---,0.00,VWS V14.01,2013-06-15 08:48:00,
2013-06-15 04:49:00,55.4,50.3,29.56,East,90,1.3,1.3,83,0.00,,---,0.00,VWS V14.01,2013-06-15 08:49:00,
2013-06-15 04:51:00,55.4,50.3,29.56,East,90,0.0,1.3,83,0.00,,---,0.00,VWS V14.01,2013-06-15 08:51:00,
2013-06-15 04:52:00,55.4,50.3,29.56,ENE,68,1.6,1.6,83,0.00,,---,0.00,VWS V14.01,2013-06-15 08:52:00,
2013-06-15 04:53:00,55.4,50.7,29.56,ESE,112,1.3,1.6,84,0.00,,---,0.00,VWS V14.01,2013-06-15 08:53:00,
2013-06-15 04:54:00,55.4,50.7,29.56,East,90,1.3,1.3,84,0.00,,---,0.00,VWS V14.01,2013-06-15 08:54:00,
2013-06-15 04:55:00,55.4,50.3,29.56,East,90,0.9,1.3,83,0.00,,---,0.00,VWS V14.01,2013-06-15 08:55:00,
2013-06-15 04:56:00,55.4,50.3,29.56,East,90,1.6,1.6,83,0.00,,---,0.00,VWS V14.01,2013-06-15 08:56:00,
2013-06-15 04:57:00,55.4,50.3,29.56,East,90,0.9,1.6,83,0.00,,---,0.00,VWS V14.01,2013-06-15 08:57:00,
2013-06-15 04:58:00,55.4,50.3,29.56,NE,45,0.0,0.9,83,0.00,,---,0.00,VWS V14.01,2013-06-15 08:58:00,
2013-06-15 04:59:00,55.4,50.3,29.56,NE,45,0.0,0.0,83,0.00,,---,0.00,VWS V14.01,2013-06-15 08:59:00,
2013-06-15 05:00:00,55.2,50.2,29.56,NE,45,0.0,0.0,83,0.00,,---,0.00,VWS V14.01,2013-06-15 09:00:00,
2013-06-15 05:02:00,55.2,50.2,29.56,NW,315,0.0,0.0,83,0.00,,---,0.00,VWS V14.01,2013-06-15 09:02:00,
2013-06-15 05:03:00,55.2,50.2,29.56,NE,45,0.0,0.0,83,0.00,,---,0.00,VWS V14.01,2013-06-15 09:03:00,
2013-06-15 05:04:00,55.0,50.0,29.56,NE,45,0.0,0.0,83,0.00,,---,0.00,VWS V14.01,2013-06-15 09:04:00,
2013-06-15 05:05:00,55.0,50.0,29.56,NE,45,0.0,0.0,83,0.00,,---,0.00,VWS V14.01,2013-06-15 09:05:00,
2013-06-15 05:06:00,54.9,49.8,29.56,ENE,68,0.0,0.0,83,0.00,,---,0.00,VWS V14.01,2013-06-15 09:06:00,
2013-06-15 05:07:00,54.9,49.8,29.56,North,0,1.1,1.1,83,0.00,,---,0.00,VWS V14.01,2013-06-15 09:07:00,
2013-06-15 05:08:00,54.9,49.8,29.56,ENE,68,2.0,2.0,83,0.00,,---,0.00,VWS V14.01,2013-06-15 09:08:00,
2013-06-15 05:09:00,55.0,50.0,29.56,ENE,68,0.0,2.0,83,0.00,,---,0.00,VWS V14.01,2013-06-15 09:09:00,
2013-06-15 05:10:00,55.0,50.0,29.56,ENE,68,0.0,0.0,83,0.00,,---,0.00,VWS V14.01,2013-06-15 09:10:00,
2013-06-15 05:11:00,54.9,49.8,29.56,ENE,68,0.0,0.0,83,0.00,,---,0.00,VWS V14.01,2013-06-15 09:11:00,
2013-06-15 05:12:00,54.9,49.8,29.56,ENE,68,0.0,0.0,83,0.00,,---,0.00,VWS V14.01,2013-06-15 09:12:00,
2013-06-15 05:13:00,54.9,49.8,29.56,ENE,68,0.0,0.0,83,0.00,,---,0.00,VWS V14.01,2013-06-15 09:13:00,
2013-06-15 05:14:00,54.7,50.0,29.56,East,90,0.0,0.0,84,0.00,,---,0.00,VWS V14.01,2013-06-15 09:14:00,
2013-06-15 05:15:00,54.7,49.6,29.56,East,90,0.0,0.0,83,0.00,,---,0.00,VWS V14.01,2013-06-15 09:15:00,
2013-06-15 05:16:00,54.7,49.6,29.56,NNW,338,0.9,0.9,83,0.00,,---,0.00,VWS V14.01,2013-06-15 09:16:00,
2013-06-15 05:17:00,54.7,50.0,29.56,NW,315,0.0,0.9,84,0.00,,---,0.00,VWS V14.01,2013-06-15 09:17:00,
2013-06-15 05:18:00,54.7,50.0,29.56,East,90,0.9,0.9,84,0.00,,---,0.00,VWS V14.01,2013-06-15 09:18:00,
2013-06-15 05:19:00,54.7,50.0,29.56,East,90,0.0,0.9,84,0.00,,---,0.00,VWS V14.01,2013-06-15 09:19:00,
2013-06-15 05:20:00,54.5,49.8,29.56,ENE,68,0.0,0.0,84,0.00,,---,0.00,VWS V14.01,2013-06-15 09:20:00,
2013-06-15 05:21:00,54.5,49.8,29.56,West,270,0.9,0.9,84,0.00,,---,0.00,VWS V14.01,2013-06-15 09:21:00,
2013-06-15 05:22:00,54.5,50.1,29.59,East,90,0.0,0.9,85,0.00,,---,0.00,VWS V14.01,2013-06-15 09:22:00,
2013-06-15 05:23:00,54.5,50.1,29.59,East,90,0.0,0.0,85,0.00,,---,0.00,VWS V14.01,2013-06-15 09:23:00,
2013-06-15 05:24:00,54.5,50.1,29.59,East,90,1.3,1.3,85,0.00,,---,0.00,VWS V14.01,2013-06-15 09:24:00,
2013-06-15 05:25:00,54.5,50.1,29.59,East,90,1.6,1.6,85,0.00,,---,0.00,VWS V14.01,2013-06-15 09:25:00,
2013-06-15 05:26:00,54.5,50.4,29.59,WNW,292,0.0,1.6,86,0.00,,---,0.00,VWS V14.01,2013-06-15 09:26:00,
2013-06-15 05:27:00,54.5,50.4,29.59,East,90,1.1,1.1,86,0.00,,---,0.00,VWS V14.01,2013-06-15 09:27:00,
2013-06-15 05:28:00,54.5,50.4,29.59,East,90,0.0,1.1,86,0.00,,---,0.00,VWS V14.01,2013-06-15 09:28:00,
2013-06-15 05:29:00,54.5,50.4,29.59,SE,135,1.3,1.3,86,0.00,,---,0.00,VWS V14.01,2013-06-15 09:29:00,
2013-06-15 05:30:00,54.5,50.4,29.59,East,90,1.3,1.3,86,0.00,,---,0.00,VWS V14.01,2013-06-15 09:30:00,
2013-06-15 05:31:00,54.5,50.4,29.59,East,90,1.3,1.3,86,0.00,,---,0.00,VWS V14.01,2013-06-15 09:31:00,
2013-06-15 05:32:00,54.5,50.4,29.59,East,90,1.1,1.3,86,0.00,,---,0.00,VWS V14.01,2013-06-15 09:32:00,
2013-06-15 05:33:00,54.5,50.4,29.59,East,90,0.0,1.1,86,0.00,,---,0.00,VWS V14.01,2013-06-15 09:33:00,
2013-06-15 05:34:00,54.5,50.1,29.59,East,90,2.0,2.0,85,0.00,,---,0.00,VWS V14.01,2013-06-15 09:34:00,
2013-06-15 05:35:00,54.5,50.4,29.59,East,90,0.9,2.0,86,0.00,,---,0.00,VWS V14.01,2013-06-15 09:35:00,
2013-06-15 05:36:00,54.5,50.4,29.59,East,90,0.9,0.9,86,0.00,,---,0.00,VWS V14.01,2013-06-15 09:36:00,
2013-06-15 05:37:00,54.5,50.4,29.59,East,90,0.0,0.9,86,0.00,,---,0.00,VWS V14.01,2013-06-15 09:37:00,
2013-06-15 05:38:00,54.5,50.1,29.59,East,90,0.0,0.0,85,0.00,,---,0.00,VWS V14.01,2013-06-15 09:38:00,
2013-06-15 05:39:00,54.5,50.1,29.59,ENE,68,2.0,2.0,85,0.00,,---,0.00,VWS V14.01,2013-06-15 09:39:00,
2013-06-15 05:40:00,54.7,50.3,29.59,East,90,0.0,2.0,85,0.00,,---,0.00,VWS V14.01,2013-06-15 09:40:00,
2013-06-15 05:41:00,54.5,50.1,29.59,East,90,1.6,1.6,85,0.00,,---,0.00,VWS V14.01,2013-06-15 09:41:00,
2013-06-15 05:42:00,54.7,50.3,29.59,East,90,1.1,1.6,85,0.00,,---,0.00,VWS V14.01,2013-06-15 09:42:00,
2013-06-15 05:43:00,54.7,50.3,29.59,East,90,0.0,1.1,85,0.00,,---,0.00,VWS V14.01,2013-06-15 09:43:00,
2013-06-15 05:44:00,54.7,50.3,29.59,East,90,0.9,0.9,85,0.00,,---,0.00,VWS V14.01,2013-06-15 09:44:00,
2013-06-15 05:45:00,54.7,50.3,29.59,East,90,0.9,0.9,85,0.00,,---,0.00,VWS V14.01,2013-06-15 09:45:00,
2013-06-15 05:46:00,54.7,50.3,29.59,SE,135,1.6,1.6,85,0.00,,---,0.00,VWS V14.01,2013-06-15 09:46:00,
2013-06-15 05:47:00,54.7,50.3,29.59,East,90,0.0,1.6,85,0.00,,---,0.00,VWS V14.01,2013-06-15 09:47:00,
2013-06-15 05:48:00,54.9,50.1,29.59,East,90,2.5,2.5,84,0.00,,---,0.00,VWS V14.01,2013-06-15 09:48:00,
2013-06-15 05:49:00,54.9,50.1,29.59,East,90,2.0,2.5,84,0.00,,---,0.00,VWS V14.01,2013-06-15 09:49:00,
2013-06-15 05:50:00,55.0,50.3,29.59,East,90,0.9,2.0,84,0.00,,---,0.00,VWS V14.01,2013-06-15 09:50:00,
2013-06-15 05:51:00,55.0,50.3,29.59,ENE,68,0.0,0.9,84,0.00,,---,0.00,VWS V14.01,2013-06-15 09:51:00,
2013-06-15 05:52:00,55.0,50.3,29.59,ESE,112,0.0,0.0,84,0.00,,---,0.00,VWS V14.01,2013-06-15 09:52:00,
2013-06-15 05:53:00,55.0,50.3,29.59,East,90,0.0,0.0,84,0.00,,---,0.00,VWS V14.01,2013-06-15 09:53:00,
2013-06-15 05:54:00,54.9,50.1,29.59,East,90,0.0,0.0,84,0.00,,---,0.00,VWS V14.01,2013-06-15 09:54:00,
2013-06-15 05:55:00,54.9,50.4,29.59,East,90,0.9,0.9,85,0.00,,---,0.00,VWS V14.01,2013-06-15 09:55:00,
2013-06-15 05:56:00,54.9,50.4,29.59,East,90,1.1,1.1,85,0.00,,---,0.00,VWS V14.01,2013-06-15 09:56:00,
2013-06-15 05:57:00,54.9,50.4,29.59,NE,45,1.6,1.6,85,0.00,,---,0.00,VWS V14.01,2013-06-15 09:57:00,
2013-06-15 05:58:00,54.9,50.8,29.59,East,90,1.3,1.6,86,0.00,,---,0.00,VWS V14.01,2013-06-15 09:58:00,
2013-06-15 05:59:00,54.9,50.8,29.59,East,90,0.9,1.3,86,0.00,,---,0.00,VWS V14.01,2013-06-15 09:59:00,
2013-06-15 06:00:00,54.9,50.8,29.59,East,90,0.0,0.9,86,0.00,,---,0.00,VWS V14.01,2013-06-15 10:00:00,
2013-06-15 06:01:00,54.9,50.8,29.59,East,90,1.3,1.3,86,0.00,,---,0.00,VWS V14.01,2013-06-15 10:01:00,
2013-06-15 06:02:00,54.9,50.8,29.59,North,0,2.7,2.7,86,0.00,,---,0.00,VWS V14.01,2013-06-15 10:02:00,
2013-06-15 06:03:00,54.9,50.8,29.59,East,90,2.0,2.7,86,0.00,,---,0.00,VWS V14.01,2013-06-15 10:03:00,
2013-06-15 06:04:00,55.0,50.9,29.59,East,90,1.3,2.0,86,0.00,,---,0.00,VWS V14.01,2013-06-15 10:04:00,
2013-06-15 06:05:00,55.0,50.9,29.59,East,90,1.6,1.6,86,0.00,,---,0.00,VWS V14.01,2013-06-15 10:05:00,
2013-06-15 06:06:00,55.0,50.9,29.59,ESE,112,1.1,1.6,86,0.00,,---,0.00,VWS V14.01,2013-06-15 10:06:00,
2013-06-15 06:07:00,55.0,50.9,29.59,NW,315,1.6,1.6,86,0.00,,---,0.00,VWS V14.01,2013-06-15 10:07:00,
2013-06-15 06:08:00,55.2,50.8,29.59,East,90,0.0,1.6,85,0.00,,---,0.00,VWS V14.01,2013-06-15 10:08:00,
2013-06-15 06:09:00,55.2,50.5,29.59,East,90,0.0,0.0,84,0.00,,---,0.00,VWS V14.01,2013-06-15 10:09:00,
2013-06-15 06:10:00,55.2,50.5,29.59,East,90,0.9,0.9,84,0.00,,---,0.00,VWS V14.01,2013-06-15 10:10:00,
2013-06-15 06:11:00,55.2,50.8,29.59,East,90,0.0,0.9,85,0.00,,---,0.00,VWS V14.01,2013-06-15 10:11:00,
2013-06-15 06:12:00,55.2,50.8,29.59,East,90,0.9,0.9,85,0.00,,---,0.00,VWS V14.01,2013-06-15 10:12:00,
2013-06-15 06:13:00,55.4,50.7,29.59,ENE,68,1.1,1.1,84,0.00,,---,0.00,VWS V14.01,2013-06-15 10:13:00,
2013-06-15 06:14:00,55.4,50.7,29.59,NE,45,0.0,1.1,84,0.00,,---,0.00,VWS V14.01,2013-06-15 10:14:00,
2013-06-15 06:15:00,55.4,50.7,29.59,SE,135,1.6,1.6,84,0.00,,---,0.00,VWS V14.01,2013-06-15 10:15:00,
2013-06-15 06:16:00,55.6,50.8,29.59,East,90,0.9,1.6,84,0.00,,---,0.00,VWS V14.01,2013-06-15 10:16:00,
2013-06-15 06:17:00,55.6,50.8,29.59,East,90,0.0,0.9,84,0.00,,---,0.00,VWS V14.01,2013-06-15 10:17:00,
2013-06-15 06:18:00,55.6,50.8,29.59,East,90,0.0,0.0,84,0.00,,---,0.00,VWS V14.01,2013-06-15 10:18:00,
2013-06-15 06:19:00,55.6,50.8,29.59,East,90,0.0,0.0,84,0.00,,---,0.00,VWS V14.01,2013-06-15 10:19:00,
2013-06-15 06:20:00,55.6,50.8,29.59,East,90,1.1,1.1,84,0.00,,---,0.00,VWS V14.01,2013-06-15 10:20:00,
2013-06-15 06:21:00,55.6,50.8,29.59,SE,135,1.3,1.3,84,0.00,,---,0.00,VWS V14.01,2013-06-15 10:21:00,
2013-06-15 06:22:00,55.6,50.8,29.62,ENE,68,0.0,1.3,84,0.00,,---,0.00,VWS V14.01,2013-06-15 10:22:00,
2013-06-15 06:23:00,55.6,50.8,29.62,ENE,68,0.0,0.0,84,0.00,,---,0.00,VWS V14.01,2013-06-15 10:23:00,
2013-06-15 06:24:00,55.6,50.8,29.62,SE,135,0.9,0.9,84,0.00,,---,0.00,VWS V14.01,2013-06-15 10:24:00,
2013-06-15 06:25:00,55.6,50.8,29.62,ENE,68,1.1,1.1,84,0.00,,---,0.00,VWS V14.01,2013-06-15 10:25:00,
2013-06-15 06:26:00,55.6,50.8,29.62,ESE,112,0.9,1.1,84,0.00,,---,0.00,VWS V14.01,2013-06-15 10:26:00,
2013-06-15 06:27:00,55.8,50.7,29.62,NE,45,0.0,0.9,83,0.00,,---,0.00,VWS V14.01,2013-06-15 10:27:00,
2013-06-15 06:28:00,55.8,50.7,29.62,East,90,0.9,0.9,83,0.00,,---,0.00,VWS V14.01,2013-06-15 10:28:00,
2013-06-15 06:29:00,55.8,50.7,29.62,SE,135,0.0,0.9,83,0.00,,---,0.00,VWS V14.01,2013-06-15 10:29:00,
2013-06-15 06:30:00,55.8,50.7,29.62,East,90,0.0,0.0,83,0.00,,---,0.00,VWS V14.01,2013-06-15 10:30:00,
2013-06-15 06:31:00,55.8,50.7,29.62,East,90,0.0,0.0,83,0.00,,---,0.00,VWS V14.01,2013-06-15 10:31:00,
2013-06-15 06:32:00,55.9,50.9,29.62,NW,315,0.0,0.0,83,0.00,,---,0.00,VWS V14.01,2013-06-15 10:32:00,
2013-06-15 06:42:00,56.1,50.7,29.62,NE,45,1.1,1.1,82,0.00,,---,0.00,VWS V14.01,2013-06-15 10:42:00,
2013-06-15 06:47:00,56.8,51.1,29.62,North,0,0.9,0.9,81,0.00,,---,0.00,VWS V14.01,2013-06-15 10:47:00,
2013-06-15 06:52:00,57.2,50.8,29.62,North,0,0.0,0.9,79,0.00,,---,0.00,VWS V14.01,2013-06-15 10:52:00,
2013-06-15 06:57:00,57.4,50.2,29.62,East,90,2.5,2.5,77,0.00,,---,0.00,VWS V14.01,2013-06-15 10:57:00,
2013-06-15 07:02:00,57.7,49.5,29.62,East,90,2.0,2.7,74,0.00,,---,0.00,VWS V14.01,2013-06-15 11:02:00,
2013-06-15 07:07:00,57.9,50.0,29.62,East,90,1.6,1.6,75,0.00,,---,0.00,VWS V14.01,2013-06-15 11:07:00,
2013-06-15 07:12:00,57.9,49.3,29.62,West,270,1.1,1.1,73,0.00,,---,0.00,VWS V14.01,2013-06-15 11:12:00,
2013-06-15 07:17:00,58.3,48.9,29.62,SE,135,0.9,1.1,71,0.00,,---,0.00,VWS V14.01,2013-06-15 11:17:00,
2013-06-15 07:22:00,58.6,49.7,29.59,South,180,0.0,0.9,72,0.00,,---,0.00,VWS V14.01,2013-06-15 11:22:00,
2013-06-15 07:27:00,59.0,49.2,29.59,SSE,158,1.1,1.1,70,0.00,,---,0.00,VWS V14.01,2013-06-15 11:27:00,
2013-06-15 07:32:00,59.2,49.4,29.59,East,90,1.3,2.2,70,0.00,,---,0.00,VWS V14.01,2013-06-15 11:32:00,
2013-06-15 07:37:00,59.4,49.6,29.62,East,90,0.0,0.0,70,0.00,,---,0.00,VWS V14.01,2013-06-15 11:37:00,
2013-06-15 07:42:00,59.7,49.5,29.62,SE,135,0.0,0.9,69,0.00,,---,0.00,VWS V14.01,2013-06-15 11:42:00,
2013-06-15 07:47:00,60.1,48.7,29.62,South,180,1.3,1.3,66,0.00,,---,0.00,VWS V14.01,2013-06-15 11:47:00,
2013-06-15 07:52:00,60.4,49.0,29.62,NW,315,1.3,1.3,66,0.00,,---,0.00,VWS V14.01,2013-06-15 11:52:00,
2013-06-15 07:57:00,61.0,49.2,29.62,East,90,0.9,2.2,65,0.00,,---,0.00,VWS V14.01,2013-06-15 11:57:00,
2013-06-15 08:02:00,61.3,48.2,29.62,East,90,1.3,2.5,62,0.00,,---,0.00,VWS V14.01,2013-06-15 12:02:00,
2013-06-15 08:07:00,61.7,48.6,29.59,East,90,1.3,1.3,62,0.00,,---,0.00,VWS V14.01,2013-06-15 12:07:00,
2013-06-15 08:12:00,61.9,47.0,29.59,NE,45,3.6,3.6,58,0.00,,---,0.00,VWS V14.01,2013-06-15 12:12:00,
2013-06-15 08:17:00,62.2,47.3,29.59,East,90,1.3,2.0,58,0.00,,---,0.00,VWS V14.01,2013-06-15 12:17:00,
2013-06-15 08:22:00,62.4,47.9,29.62,East,90,1.6,1.6,59,0.00,,---,0.00,VWS V14.01,2013-06-15 12:22:00,
2013-06-15 08:27:00,62.8,48.7,29.62,SE,135,1.1,1.1,60,0.00,,---,0.00,VWS V14.01,2013-06-15 12:27:00,
2013-06-15 08:32:00,63.1,49.5,29.62,East,90,0.0,0.0,61,0.00,,---,0.00,VWS V14.01,2013-06-15 12:32:00,
2013-06-15 08:37:00,63.3,50.1,29.62,East,90,0.0,0.0,62,0.00,,---,0.00,VWS V14.01,2013-06-15 12:37:00,
2013-06-15 08:42:00,63.9,49.7,29.62,West,270,2.2,2.2,60,0.00,,---,0.00,VWS V14.01,2013-06-15 12:42:00,
2013-06-15 08:47:00,63.9,49.7,29.62,SE,135,0.0,0.0,60,0.00,,---,0.00,VWS V14.01,2013-06-15 12:47:00,
2013-06-15 08:52:00,63.9,49.7,29.62,East,90,1.1,1.6,60,0.00,,---,0.00,VWS V14.01,2013-06-15 12:52:00,
2013-06-15 08:57:00,63.9,49.7,29.62,SE,135,1.1,2.0,60,0.00,,---,0.00,VWS V14.01,2013-06-15 12:57:00,
2013-06-15 09:02:00,63.9,49.7,29.62,East,90,0.0,0.0,60,0.00,,---,0.00,VWS V14.01,2013-06-15 13:02:00,
2013-06-15 09:07:00,63.9,49.7,29.65,East,90,1.3,1.3,60,0.00,,---,0.00,VWS V14.01,2013-06-15 13:07:00,
2013-06-15 09:12:00,63.9,49.7,29.65,SW,225,3.1,3.1,60,0.00,,---,0.00,VWS V14.01,2013-06-15 13:12:00,
2013-06-15 09:17:00,63.9,49.7,29.65,North,0,2.0,2.5,60,0.00,,---,0.00,VWS V14.01,2013-06-15 13:17:00,
2013-06-15 09:22:00,68.9,48.4,29.65,South,180,0.0,1.1,48,0.00,,---,0.00,VWS V14.01,2013-06-15 13:22:00,
2013-06-15 09:27:00,70.0,48.3,29.65,South,180,2.7,2.7,46,0.00,,---,0.00,VWS V14.01,2013-06-15 13:27:00,
2013-06-15 09:32:00,71.4,49.6,29.65,SE,135,2.9,2.9,46,0.00,,---,0.00,VWS V14.01,2013-06-15 13:32:00,
2013-06-15 09:37:00,72.1,49.0,29.65,WSW,248,1.1,1.3,44,0.00,,---,0.00,VWS V14.01,2013-06-15 13:37:00,
2013-06-15 09:42:00,72.9,49.1,29.65,East,90,2.5,2.5,43,0.00,,---,0.00,VWS V14.01,2013-06-15 13:42:00,
2013-06-15 09:47:00,73.8,49.3,29.65,NE,45,2.5,2.5,42,0.00,,---,0.00,VWS V14.01,2013-06-15 13:47:00,
2013-06-15 09:51:00,74.8,50.2,29.65,East,90,1.3,1.3,42,0.00,,---,0.00,VWS V14.01,2013-06-15 13:51:00,
2013-06-15 09:56:00,75.0,49.8,29.65,North,0,0.0,1.6,41,0.00,,---,0.00,VWS V14.01,2013-06-15 13:56:00,
2013-06-15 10:01:00,74.8,47.6,29.65,East,90,2.0,2.0,38,0.00,,---,0.00,VWS V14.01,2013-06-15 14:01:00,
2013-06-15 10:06:00,75.2,46.4,29.65,West,270,1.6,1.6,36,0.00,,---,0.00,VWS V14.01,2013-06-15 14:06:00,
2013-06-15 10:11:00,75.9,46.3,29.65,SW,225,1.6,2.5,35,0.00,,---,0.00,VWS V14.01,2013-06-15 14:11:00,
2013-06-15 10:16:00,75.9,46.3,29.65,ENE,68,2.2,2.2,35,0.00,,---,0.00,VWS V14.01,2013-06-15 14:16:00,
2013-06-15 10:21:00,77.0,48.0,29.65,East,90,0.0,0.0,36,0.00,,---,0.00,VWS V14.01,2013-06-15 14:21:00,
2013-06-15 10:26:00,77.2,47.4,29.65,West,270,1.1,1.6,35,0.00,,---,0.00,VWS V14.01,2013-06-15 14:26:00,
2013-06-15 10:31:00,77.9,48.1,29.65,East,90,1.3,2.2,35,0.00,,---,0.00,VWS V14.01,2013-06-15 14:31:00,
2013-06-15 10:36:00,77.7,46.3,29.65,West,270,1.3,1.3,33,0.00,,---,0.00,VWS V14.01,2013-06-15 14:36:00,
2013-06-15 10:41:00,78.1,45.8,29.65,SE,135,3.4,3.4,32,0.00,,---,0.00,VWS V14.01,2013-06-15 14:41:00,
2013-06-15 10:46:00,76.8,43.9,29.65,NE,45,3.8,5.8,31,0.00,,---,0.00,VWS V14.01,2013-06-15 14:46:00,
2013-06-15 10:51:00,76.6,43.8,29.65,East,90,2.9,2.9,31,0.00,,---,0.00,VWS V14.01,2013-06-15 14:51:00,
2013-06-15 10:56:00,77.2,44.2,29.65,East,90,2.0,2.0,31,0.00,,---,0.00,VWS V14.01,2013-06-15 14:56:00,
2013-06-15 11:01:00,77.7,44.7,29.65,SW,225,2.0,3.6,31,0.00,,---,0.00,VWS V14.01,2013-06-15 15:01:00,
2013-06-15 11:06:00,78.1,45.0,29.65,SE,135,2.2,2.2,31,0.00,,---,0.00,VWS V14.01,2013-06-15 15:06:00,
2013-06-15 11:11:00,78.4,45.3,29.65,South,180,4.0,5.4,31,0.00,,---,0.00,VWS V14.01,2013-06-15 15:11:00,
2013-06-15 11:16:00,79.7,47.3,29.65,East,90,1.1,3.8,32,0.00,,---,0.00,VWS V14.01,2013-06-15 15:16:00,
2013-06-15 11:21:00,79.9,46.6,29.65,ESE,112,2.9,2.9,31,0.00,,---,0.00,VWS V14.01,2013-06-15 15:21:00,
2013-06-15 11:26:00,80.1,46.7,29.65,East,90,2.7,2.7,31,0.00,,---,0.00,VWS V14.01,2013-06-15 15:26:00,
2013-06-15 11:31:00,79.2,46.0,29.65,North,0,3.6,3.6,31,0.00,,---,0.00,VWS V14.01,2013-06-15 15:31:00,
2013-06-15 11:36:00,80.6,46.3,29.65,NW,315,1.1,2.0,30,0.00,,---,0.00,VWS V14.01,2013-06-15 15:36:00,
2013-06-15 11:41:00,81.1,48.5,29.65,SW,225,2.5,2.9,32,0.00,,---,0.00,VWS V14.01,2013-06-15 15:41:00,
2013-06-15 11:46:00,82.0,49.3,29.65,South,180,1.3,1.3,32,0.00,,---,0.00,VWS V14.01,2013-06-15 15:46:00,
2013-06-15 11:51:00,82.4,48.8,29.65,NE,45,1.6,1.6,31,0.00,,---,0.00,VWS V14.01,2013-06-15 15:51:00,
2013-06-15 11:56:00,82.0,48.5,29.68,SSE,158,1.3,2.5,31,0.00,,---,0.00,VWS V14.01,2013-06-15 15:56:00,
2013-06-15 12:01:00,82.0,47.6,29.68,West,270,2.0,2.9,30,0.00,,---,0.00,VWS V14.01,2013-06-15 16:01:00,
2013-06-15 12:06:00,82.4,48.8,29.68,North,0,1.6,3.6,31,0.00,,---,0.00,VWS V14.01,2013-06-15 16:06:00,
2013-06-15 12:11:00,82.9,48.3,29.65,East,90,1.3,4.0,30,0.00,,---,0.00,VWS V14.01,2013-06-15 16:11:00,
2013-06-15 12:16:00,82.0,48.5,29.65,NNE,22,3.1,3.1,31,0.00,,---,0.00,VWS V14.01,2013-06-15 16:16:00,
2013-06-15 12:21:00,81.5,47.1,29.65,North,0,3.4,3.6,30,0.00,,---,0.00,VWS V14.01,2013-06-15 16:21:00,
2013-06-15 12:26:00,80.1,45.9,29.65,WSW,248,4.7,6.0,30,0.00,,---,0.00,VWS V14.01,2013-06-15 16:26:00,
2013-06-15 12:31:00,81.5,48.0,29.65,East,90,2.5,2.7,31,0.00,,---,0.00,VWS V14.01,2013-06-15 16:31:00,
2013-06-15 12:36:00,81.1,46.8,29.65,NW,315,2.0,3.4,30,0.00,,---,0.00,VWS V14.01,2013-06-15 16:36:00,
2013-06-15 12:41:00,81.5,47.1,29.65,NE,45,0.0,3.4,30,0.00,,---,0.00,VWS V14.01,2013-06-15 16:41:00,
2013-06-15 12:46:00,82.2,47.7,29.65,East,90,3.8,3.8,30,0.00,,---,0.00,VWS V14.01,2013-06-15 16:46:00,
2013-06-15 12:51:00,82.6,48.0,29.65,SW,225,1.3,3.4,30,0.00,,---,0.00,VWS V14.01,2013-06-15 16:51:00,
2013-06-15 12:56:00,82.6,47.1,29.62,West,270,3.4,3.4,29,0.00,,---,0.00,VWS V14.01,2013-06-15 16:56:00,
2013-06-15 13:01:00,82.9,49.2,29.62,SSW,202,1.6,1.6,31,0.00,,---,0.00,VWS V14.01,2013-06-15 17:01:00,
2013-06-15 13:06:00,83.3,46.8,29.62,NW,315,1.6,3.8,28,0.00,,---,0.00,VWS V14.01,2013-06-15 17:06:00,
2013-06-15 13:11:00,83.1,47.6,29.65,NNW,338,1.1,3.1,29,0.00,,---,0.00,VWS V14.01,2013-06-15 17:11:00,
2013-06-15 13:16:00,82.4,45.1,29.65,SSW,202,2.2,3.1,27,0.00,,---,0.00,VWS V14.01,2013-06-15 17:16:00,
2013-06-15 13:21:00,83.7,48.1,29.65,ESE,112,3.6,3.6,29,0.00,,---,0.00,VWS V14.01,2013-06-15 17:21:00,
2013-06-15 13:26:00,84.0,48.4,29.65,East,90,3.4,3.4,29,0.00,,---,0.00,VWS V14.01,2013-06-15 17:26:00,
2013-06-15 13:31:00,83.3,47.8,29.65,SW,225,2.2,3.8,29,0.00,,---,0.00,VWS V14.01,2013-06-15 17:31:00,
2013-06-15 13:36:00,84.0,46.5,29.65,SE,135,1.1,2.2,27,0.00,,---,0.00,VWS V14.01,2013-06-15 17:36:00,
2013-06-15 13:41:00,83.5,46.0,29.62,NNW,338,0.0,2.7,27,0.00,,---,0.00,VWS V14.01,2013-06-15 17:41:00,
2013-06-15 13:46:00,83.5,45.0,29.62,NE,45,0.0,1.3,26,0.00,,---,0.00,VWS V14.01,2013-06-15 17:46:00,
2013-06-15 13:51:00,85.1,49.3,29.62,ESE,112,1.3,1.3,29,0.00,,---,0.00,VWS V14.01,2013-06-15 17:51:00,
2013-06-15 13:56:00,84.6,47.9,29.62,NE,45,4.7,4.7,28,0.00,,---,0.00,VWS V14.01,2013-06-15 17:56:00,
2013-06-15 14:01:00,85.1,48.4,29.62,SW,225,1.6,1.6,28,0.00,,---,0.00,VWS V14.01,2013-06-15 18:01:00,
2013-06-15 14:06:00,85.6,48.8,29.62,SE,135,1.1,1.6,28,0.00,,---,0.00,VWS V14.01,2013-06-15 18:06:00,
2013-06-15 14:11:00,85.8,49.9,29.62,SE,135,0.0,1.1,29,0.00,,---,0.00,VWS V14.01,2013-06-15 18:11:00,
2013-06-15 14:16:00,85.3,48.5,29.62,West,270,1.3,3.1,28,0.00,,---,0.00,VWS V14.01,2013-06-15 18:16:00,
2013-06-15 14:21:00,84.0,42.3,29.62,East,90,3.1,4.0,23,0.00,,---,0.00,VWS V14.01,2013-06-15 18:21:00,
2013-06-15 14:26:00,84.2,46.6,29.62,East,90,2.7,2.9,27,0.00,,---,0.00,VWS V14.01,2013-06-15 18:26:00,
2013-06-15 14:31:00,84.2,46.6,29.62,East,90,1.3,1.3,27,0.00,,---,0.00,VWS V14.01,2013-06-15 18:31:00,
2013-06-15 14:36:00,84.6,46.9,29.62,East,90,4.0,4.0,27,0.00,,---,0.00,VWS V14.01,2013-06-15 18:36:00,
2013-06-15 14:41:00,83.5,44.0,29.62,NW,315,2.7,2.9,25,0.00,,---,0.00,VWS V14.01,2013-06-15 18:41:00,
2013-06-15 14:46:00,83.3,41.7,29.62,NE,45,2.7,2.7,23,0.00,,---,0.00,VWS V14.01,2013-06-15 18:46:00,
2013-06-15 14:51:00,83.8,46.3,29.62,East,90,0.0,1.1,27,0.00,,---,0.00,VWS V14.01,2013-06-15 18:51:00,
2013-06-15 14:56:00,84.9,49.2,29.59,NW,315,1.6,2.5,29,0.00,,---,0.00,VWS V14.01,2013-06-15 18:56:00,
2013-06-15 15:01:00,84.2,44.6,29.59,SE,135,2.0,2.0,25,0.00,,---,0.00,VWS V14.01,2013-06-15 19:01:00,
2013-06-15 15:06:00,84.4,45.8,29.59,ENE,68,2.7,2.7,26,0.00,,---,0.00,VWS V14.01,2013-06-15 19:06:00,
2013-06-15 15:11:00,83.8,43.2,29.65,West,270,3.8,3.8,24,0.00,,---,0.00,VWS V14.01,2013-06-15 19:11:00,
2013-06-15 15:16:00,82.9,43.5,29.65,SSE,158,2.5,2.5,25,0.00,,---,0.00,VWS V14.01,2013-06-15 19:16:00,
2013-06-15 15:21:00,82.4,44.1,29.65,North,0,0.0,0.9,26,0.00,,---,0.00,VWS V14.01,2013-06-15 19:21:00,
2013-06-15 15:26:00,83.8,45.3,29.62,East,90,1.1,1.3,26,0.00,,---,0.00,VWS V14.01,2013-06-15 19:26:00,
2013-06-15 15:31:00,85.3,48.5,29.62,SE,135,1.1,1.3,28,0.00,,---,0.00,VWS V14.01,2013-06-15 19:31:00,
2013-06-15 15:36:00,84.2,47.6,29.62,SE,135,0.0,0.0,28,0.00,,---,0.00,VWS V14.01,2013-06-15 19:36:00,
2013-06-15 15:41:00,83.7,48.1,29.62,SE,135,1.1,1.6,29,0.00,,---,0.00,VWS V14.01,2013-06-15 19:41:00,
2013-06-15 15:46:00,83.5,47.9,29.62,ESE,112,2.0,2.5,29,0.00,,---,0.00,VWS V14.01,2013-06-15 19:46:00,
2013-06-15 15:51:00,84.0,47.4,29.62,East,90,0.0,1.3,28,0.00,,---,0.00,VWS V14.01,2013-06-15 19:51:00,
2013-06-15 15:56:00,83.8,48.2,29.62,East,90,3.6,3.6,29,0.00,,---,0.00,VWS V14.01,2013-06-15 19:56:00,
2013-06-15 16:00:00,83.3,46.8,29.62,SSW,202,1.6,1.6,28,0.00,,---,0.00,VWS V14.01,2013-06-15 20:00:00,
2013-06-15 16:05:00,83.8,49.1,29.62,SW,225,1.3,1.3,30,0.00,,---,0.00,VWS V14.01,2013-06-15 20:05:00,
2013-06-15 16:10:00,84.0,48.4,29.59,East,90,1.3,1.6,29,0.00,,---,0.00,VWS V14.01,2013-06-15 20:10:00,
2013-06-15 16:15:00,83.7,45.2,29.59,NE,45,1.1,1.1,26,0.00,,---,0.00,VWS V14.01,2013-06-15 20:15:00,
2013-06-15 16:20:00,84.2,47.6,29.59,SW,225,0.9,0.9,28,0.00,,---,0.00,VWS V14.01,2013-06-15 20:20:00,
2013-06-15 16:25:00,80.4,46.2,29.62,ENE,68,1.3,1.3,30,0.00,,---,0.00,VWS V14.01,2013-06-15 20:25:00,
2013-06-15 16:30:00,81.0,46.6,29.62,East,90,2.5,2.5,30,0.00,,---,0.00,VWS V14.01,2013-06-15 20:30:00,
2013-06-15 16:35:00,82.8,47.3,29.62,SSW,202,0.0,0.0,29,0.00,,---,0.00,VWS V14.01,2013-06-15 20:35:00,
2013-06-15 16:40:00,81.9,47.4,29.62,SE,135,1.3,2.2,30,0.00,,---,0.00,VWS V14.01,2013-06-15 20:40:00,
2013-06-15 16:45:00,80.2,46.0,29.62,NW,315,0.9,0.9,30,0.00,,---,0.00,VWS V14.01,2013-06-15 20:45:00,
2013-06-15 16:50:00,78.6,43.7,29.62,NW,315,1.3,2.2,29,0.00,,---,0.00,VWS V14.01,2013-06-15 20:50:00,
2013-06-15 16:55:00,79.5,45.4,29.62,West,270,0.0,0.0,30,0.00,,---,0.00,VWS V14.01,2013-06-15 20:55:00,
2013-06-15 17:00:00,79.0,44.9,29.62,WSW,248,2.0,2.0,30,0.00,,---,0.00,VWS V14.01,2013-06-15 21:00:00,
2013-06-15 17:05:00,77.4,43.5,29.62,South,180,0.0,0.0,30,0.00,,---,0.00,VWS V14.01,2013-06-15 21:05:00,
2013-06-15 17:10:00,76.8,44.8,29.59,SE,135,0.0,1.6,32,0.00,,---,0.00,VWS V14.01,2013-06-15 21:10:00,
2013-06-15 17:15:00,76.8,43.9,29.59,West,270,0.0,0.0,31,0.00,,---,0.00,VWS V14.01,2013-06-15 21:15:00,
2013-06-15 17:20:00,77.2,44.2,29.59,West,270,2.0,2.0,31,0.00,,---,0.00,VWS V14.01,2013-06-15 21:20:00,
2013-06-15 17:25:00,77.0,44.1,29.59,West,270,0.0,0.0,31,0.00,,---,0.00,VWS V14.01,2013-06-15 21:25:00,
2013-06-15 17:30:00,76.5,44.4,29.59,South,180,0.0,2.9,32,0.00,,---,0.00,VWS V14.01,2013-06-15 21:30:00,
2013-06-15 17:35:00,75.7,43.8,29.59,South,180,0.0,2.7,32,0.00,,---,0.00,VWS V14.01,2013-06-15 21:35:00,
2013-06-15 17:40:00,75.6,43.7,29.59,East,90,2.9,6.5,32,0.00,,---,0.00,VWS V14.01,2013-06-15 21:40:00,
2013-06-15 17:45:00,75.9,43.1,29.59,East,90,3.4,3.4,31,0.00,,---,0.00,VWS V14.01,2013-06-15 21:45:00,
2013-06-15 17:50:00,76.1,43.3,29.59,West,270,2.5,4.3,31,0.00,,---,0.00,VWS V14.01,2013-06-15 21:50:00,
2013-06-15 17:55:00,75.4,42.7,29.62,SW,225,1.1,2.5,31,0.00,,---,0.00,VWS V14.01,2013-06-15 21:55:00,
2013-06-15 18:00:00,75.0,42.4,29.62,NE,45,3.6,3.6,31,0.00,,---,0.00,VWS V14.01,2013-06-15 22:00:00,
2013-06-15 18:05:00,74.1,42.4,29.62,West,270,2.0,2.0,32,0.00,,---,0.00,VWS V14.01,2013-06-15 22:05:00,
2013-06-15 18:10:00,73.9,42.2,29.62,NW,315,1.6,1.6,32,0.00,,---,0.00,VWS V14.01,2013-06-15 22:10:00,
2013-06-15 18:15:00,73.6,41.9,29.62,SE,135,0.0,0.0,32,0.00,,---,0.00,VWS V14.01,2013-06-15 22:15:00,
2013-06-15 18:20:00,73.4,41.8,29.62,West,270,2.0,2.0,32,0.00,,---,0.00,VWS V14.01,2013-06-15 22:20:00,
2013-06-15 18:25:00,73.0,41.5,29.62,East,90,2.5,2.5,32,0.00,,---,0.00,VWS V14.01,2013-06-15 22:25:00,
2013-06-15 18:30:00,73.0,41.5,29.62,SE,135,1.3,2.5,32,0.00,,---,0.00,VWS V14.01,2013-06-15 22:30:00,
2013-06-15 18:35:00,72.9,41.3,29.62,West,270,1.3,2.2,32,0.00,,---,0.00,VWS V14.01,2013-06-15 22:35:00,
2013-06-15 18:40:00,72.5,41.0,29.62,East,90,0.9,1.3,32,0.00,,---,0.00,VWS V14.01,2013-06-15 22:40:00,
2013-06-15 18:45:00,72.3,40.8,29.62,West,270,0.0,0.0,32,0.00,,---,0.00,VWS V14.01,2013-06-15 22:45:00,
2013-06-15 18:50:00,72.1,40.7,29.62,WSW,248,0.0,1.3,32,0.00,,---,0.00,VWS V14.01,2013-06-15 22:50:00,
2013-06-15 18:55:00,72.1,40.7,29.62,SE,135,1.1,1.3,32,0.00,,---,0.00,VWS V14.01,2013-06-15 22:55:00,
2013-06-15 19:00:00,71.8,41.2,29.62,NE,45,0.0,0.0,33,0.00,,---,0.00,VWS V14.01,2013-06-15 23:00:00,
2013-06-15 19:05:00,71.4,41.6,29.62,North,0,0.0,1.1,34,0.00,,---,0.00,VWS V14.01,2013-06-15 23:05:00,
2013-06-15 19:10:00,71.1,42.0,29.62,SE,135,0.0,0.0,35,0.00,,---,0.00,VWS V14.01,2013-06-15 23:10:00,
2013-06-15 19:15:00,70.5,41.6,29.62,East,90,0.0,0.0,35,0.00,,---,0.00,VWS V14.01,2013-06-15 23:15:00,
2013-06-15 19:20:00,70.2,42.0,29.62,NE,45,0.0,0.0,36,0.00,,---,0.00,VWS V14.01,2013-06-15 23:20:00,
2013-06-15 19:25:00,69.6,42.9,29.62,East,90,0.0,0.0,38,0.00,,---,0.00,VWS V14.01,2013-06-15 23:25:00,
2013-06-15 19:30:00,69.1,43.1,29.62,East,90,0.0,0.0,39,0.00,,---,0.00,VWS V14.01,2013-06-15 23:30:00,
2013-06-15 19:35:00,68.7,42.8,29.62,East,90,0.0,0.0,39,0.00,,---,0.00,VWS V14.01,2013-06-15 23:35:00,
2013-06-15 19:40:00,68.4,43.8,29.62,East,90,0.0,573.1,41,0.00,,---,0.00,VWS V14.01,2013-06-15 23:40:00,
2013-06-15 19:45:00,67.8,43.9,29.62,NE,45,0.0,0.0,42,0.00,,---,0.00,VWS V14.01,2013-06-15 23:45:00,
2013-06-15 19:50:00,67.5,44.2,29.62,NE,45,0.0,0.0,43,0.00,,---,0.00,VWS V14.01,2013-06-15 23:50:00,
2013-06-15 19:55:00,67.3,44.0,29.62,NE,45,0.0,0.0,43,0.00,,---,0.00,VWS V14.01,2013-06-15 23:55:00,
2013-06-15 20:00:00,66.9,44.3,29.62,NE,45,0.0,0.0,44,0.00,,---,0.00,VWS V14.01,2013-06-16 00:00:00,
2013-06-15 20:05:00,66.6,44.6,29.62,NE,45,0.0,0.0,45,0.00,,---,0.00,VWS V14.01,2013-06-16 00:05:00,
2013-06-15 20:10:00,66.2,44.2,29.62,NE,45,0.0,0.0,45,0.00,,---,0.00,VWS V14.01,2013-06-16 00:10:00,
2013-06-15 20:15:00,65.8,44.5,29.62,NE,45,0.0,0.0,46,0.00,,---,0.00,VWS V14.01,2013-06-16 00:15:00,
2013-06-15 20:20:00,65.5,44.2,29.62,NE,45,0.0,0.0,46,0.00,,---,0.00,VWS V14.01,2013-06-16 00:20:00,
2013-06-15 20:25:00,65.1,43.8,29.62,NE,45,0.0,0.0,46,0.00,,---,0.00,VWS V14.01,2013-06-16 00:25:00,
2013-06-15 20:30:00,64.9,43.7,29.62,NE,45,0.0,0.0,46,0.00,,---,0.00,VWS V14.01,2013-06-16 00:30:00,
2013-06-15 20:35:00,64.8,44.1,29.62,NE,45,0.0,0.0,47,0.00,,---,0.00,VWS V14.01,2013-06-16 00:35:00,
2013-06-15 20:40:00,64.4,43.8,29.62,NE,45,0.0,0.0,47,0.00,,---,0.00,VWS V14.01,2013-06-16 00:40:00,
2013-06-15 20:45:00,64.2,44.1,29.62,NE,45,0.0,0.0,48,0.00,,---,0.00,VWS V14.01,2013-06-16 00:45:00,
2013-06-15 20:50:00,64.0,44.0,29.62,ENE,68,0.0,0.0,48,0.00,,---,0.00,VWS V14.01,2013-06-16 00:50:00,
2013-06-15 20:55:00,63.7,44.2,29.59,ENE,68,0.0,0.0,49,0.00,,---,0.00,VWS V14.01,2013-06-16 00:55:00,
2013-06-15 21:00:00,63.5,44.0,29.59,ENE,68,0.0,0.0,49,0.00,,---,0.00,VWS V14.01,2013-06-16 01:00:00,
2013-06-15 21:05:00,63.1,43.7,29.59,ENE,68,0.0,0.0,49,0.00,,---,0.00,VWS V14.01,2013-06-16 01:05:00,
2013-06-15 21:10:00,63.0,43.5,29.59,ENE,68,0.0,0.0,49,0.00,,---,0.00,VWS V14.01,2013-06-16 01:10:00,
2013-06-15 21:15:00,62.6,43.7,29.59,ENE,68,0.0,0.0,50,0.00,,---,0.00,VWS V14.01,2013-06-16 01:15:00,
2013-06-15 21:20:00,62.4,44.1,29.59,ENE,68,0.0,0.0,51,0.00,,---,0.00,VWS V14.01,2013-06-16 01:20:00,
2013-06-15 21:25:00,62.1,44.2,29.59,ENE,68,0.0,0.0,52,0.00,,---,0.00,VWS V14.01,2013-06-16 01:25:00,
2013-06-15 21:30:00,61.7,43.9,29.59,ENE,68,0.0,0.0,52,0.00,,---,0.00,VWS V14.01,2013-06-16 01:30:00,
2013-06-15 21:35:00,61.3,44.1,29.59,ENE,68,0.0,0.0,53,0.00,,---,0.00,VWS V14.01,2013-06-16 01:35:00,
2013-06-15 21:40:00,61.0,43.8,29.62,ENE,68,0.0,0.0,53,0.00,,---,0.00,VWS V14.01,2013-06-16 01:40:00,
2013-06-15 21:45:00,60.6,44.8,29.62,ENE,68,0.0,0.0,56,0.00,,---,0.00,VWS V14.01,2013-06-16 01:45:00,
2013-06-15 21:50:00,60.4,44.7,29.62,ENE,68,0.0,0.0,56,0.00,,---,0.00,VWS V14.01,2013-06-16 01:50:00,
2013-06-15 21:55:00,60.4,45.6,29.62,ENE,68,0.0,0.0,58,0.00,,---,0.00,VWS V14.01,2013-06-16 01:55:00,
2013-06-15 22:00:00,60.3,45.4,29.62,ENE,68,0.0,0.0,58,0.00,,---,0.00,VWS V14.01,2013-06-16 02:00:00,
2013-06-15 22:05:00,60.1,45.7,29.62,ENE,68,0.0,0.0,59,0.00,,---,0.00,VWS V14.01,2013-06-16 02:05:00,
2013-06-15 22:10:00,59.9,45.5,29.62,ENE,68,0.0,0.0,59,0.00,,---,0.00,VWS V14.01,2013-06-16 02:10:00,
2013-06-15 22:15:00,59.9,46.4,29.62,ENE,68,0.0,0.0,61,0.00,,---,0.00,VWS V14.01,2013-06-16 02:15:00,
2013-06-15 22:20:00,59.7,46.7,29.62,ENE,68,0.0,0.0,62,0.00,,---,0.00,VWS V14.01,2013-06-16 02:20:00,
2013-06-15 22:25:00,59.4,47.6,29.62,ENE,68,0.0,0.0,65,0.00,,---,0.00,VWS V14.01,2013-06-16 02:25:00,
2013-06-15 22:30:00,59.0,46.8,29.62,ENE,68,0.0,0.0,64,0.00,,---,0.00,VWS V14.01,2013-06-16 02:30:00,
2013-06-15 22:35:00,58.8,46.7,29.62,ENE,68,0.0,0.0,64,0.00,,---,0.00,VWS V14.01,2013-06-16 02:35:00,
2013-06-15 22:40:00,58.8,47.1,29.62,ENE,68,0.0,0.0,65,0.00,,---,0.00,VWS V14.01,2013-06-16 02:40:00,
2013-06-15 22:45:00,58.6,46.9,29.62,ENE,68,0.0,0.0,65,0.00,,---,0.00,VWS V14.01,2013-06-16 02:45:00,
2013-06-15 22:50:00,58.5,46.8,29.62,ENE,68,0.0,0.0,65,0.00,,---,0.00,VWS V14.01,2013-06-16 02:50:00,
2013-06-15 22:55:00,58.5,47.6,29.62,ENE,68,0.0,0.0,67,0.00,,---,0.00,VWS V14.01,2013-06-16 02:55:00,
2013-06-15 22:59:00,58.3,47.8,29.62,ENE,68,0.0,0.0,68,0.00,,---,0.00,VWS V14.01,2013-06-16 02:59:00,
2013-06-15 23:04:00,58.3,47.8,29.62,ENE,68,0.0,0.0,68,0.00,,---,0.00,VWS V14.01,2013-06-16 03:04:00,
2013-06-15 23:09:00,58.1,47.2,29.62,ENE,68,0.0,0.0,67,0.00,,---,0.00,VWS V14.01,2013-06-16 03:09:00,
2013-06-15 23:14:00,57.9,48.2,29.62,ENE,68,0.0,0.0,70,0.00,,---,0.00,VWS V14.01,2013-06-16 03:14:00,
2013-06-15 23:19:00,57.6,48.2,29.62,ENE,68,0.0,0.0,71,0.00,,---,0.00,VWS V14.01,2013-06-16 03:19:00,
2013-06-15 23:24:00,57.4,48.1,29.65,ENE,68,0.0,0.0,71,0.00,,---,0.00,VWS V14.01,2013-06-16 03:24:00,
2013-06-15 23:29:00,57.4,48.4,29.65,ENE,68,0.0,0.0,72,0.00,,---,0.00,VWS V14.01,2013-06-16 03:29:00,
2013-06-15 23:34:00,57.2,48.6,29.65,ENE,68,0.0,0.0,73,0.00,,---,0.00,VWS V14.01,2013-06-16 03:34:00,
2013-06-15 23:39:00,56.8,48.3,29.65,ENE,68,0.0,0.0,73,0.00,,---,0.00,VWS V14.01,2013-06-16 03:39:00,
2013-06-15 23:44:00,56.7,47.8,29.65,ENE,68,0.0,0.0,72,0.00,,---,0.00,VWS V14.01,2013-06-16 03:44:00,
2013-06-15 23:49:00,56.7,47.8,29.65,ENE,68,0.0,0.0,72,0.00,,---,0.00,VWS V14.01,2013-06-16 03:49:00,
2013-06-15 23:54:00,56.7,48.1,29.65,ENE,68,0.0,0.0,73,0.00,,---,0.00,VWS V14.01,2013-06-16 03:54:00,
2013-06-15 23:59:00,56.7,48.5,29.65,ENE,68,0.0,0.0,74,0.00,,---,0.00,VWS V14.01,2013-06-16 03:59:00,